Wetterdaten: Donnerstag, 02.03.2017
Datum Zeit Temp. A. Feuchte A. Luftdruck Regen Wind Richtung Richtung Sonnenschein ET UV Solar Taupunkt Windchill Windben Empfang
02.03.2017 00:00 4,2 C 78 % 1008,6 hPa 0,0 l/m 1,9 km/h (1 Bft) W 275 0 min 0,000 mm 0,0 UV-I 0 W/m 0,7 C 4,2 C 4,8 km/h (1 Bft) 98,00 %
02.03.2017 00:02 4,2 C 78 % 1008,5 hPa 0,0 l/m 0,0 km/h (0 Bft) W 275 0 min 0,000 mm 0,0 UV-I 0 W/m 0,7 C 4,2 C 0,0 km/h (0 Bft) 14,29 %
02.03.2017 00:04 4,2 C 78 % 1008,5 hPa 0,0 l/m 0,4 km/h (0 Bft) W 275 0 min 0,000 mm 0,0 UV-I 0 W/m 0,7 C 4,2 C 3,2 km/h (1 Bft) 81,25 %
02.03.2017 00:06 4,2 C 78 % 1008,5 hPa 0,0 l/m 2,8 km/h (1 Bft) W 275 0 min 0,000 mm 0,0 UV-I 0 W/m 0,7 C 4,2 C 4,8 km/h (1 Bft) 97,62 %
02.03.2017 00:08 4,2 C 79 % 1008,5 hPa 0,0 l/m 0,3 km/h (0 Bft) W 275 0 min 0,000 mm 0,0 UV-I 0 W/m 0,9 C 4,2 C 1,6 km/h (1 Bft) 100,00 %
02.03.2017 00:10 4,2 C 79 % 1008,4 hPa 0,0 l/m 0,0 km/h (0 Bft) W 275 0 min 0,000 mm 0,0 UV-I 0 W/m 0,9 C 4,2 C 0,0 km/h (0 Bft) 100,00 %
02.03.2017 00:12 4,2 C 79 % 1008,5 hPa 0,0 l/m 0,4 km/h (0 Bft) W 275 0 min 0,000 mm 0,0 UV-I 0 W/m 0,9 C 4,2 C 3,2 km/h (1 Bft) 96,23 %
02.03.2017 00:14 4,1 C 79 % 1008,4 hPa 0,0 l/m 3,0 km/h (1 Bft) W 275 0 min 0,000 mm 0,0 UV-I 0 W/m 0,8 C 4,1 C 3,2 km/h (1 Bft) 97,87 %
02.03.2017 00:16 4,2 C 78 % 1008,4 hPa 0,0 l/m 1,8 km/h (1 Bft) W 275 0 min 0,000 mm 0,0 UV-I 0 W/m 0,7 C 4,2 C 3,2 km/h (1 Bft) 98,00 %
02.03.2017 00:18 4,2 C 78 % 1008,4 hPa 0,0 l/m 0,4 km/h (0 Bft) W 275 0 min 0,000 mm 0,0 UV-I 0 W/m 0,7 C 4,2 C 1,6 km/h (1 Bft) 97,87 %
02.03.2017 00:20 4,2 C 78 % 1008,4 hPa 0,0 l/m 0,0 km/h (0 Bft) W 275 0 min 0,000 mm 0,0 UV-I 0 W/m 0,7 C 4,2 C 0,0 km/h (0 Bft) 100,00 %
02.03.2017 00:22 4,2 C 79 % 1008,4 hPa 0,0 l/m 0,1 km/h (0 Bft) W 275 0 min 0,000 mm 0,0 UV-I 0 W/m 0,9 C 4,2 C 1,6 km/h (1 Bft) 97,37 %
02.03.2017 00:24 4,1 C 81 % 1008,4 hPa 0,0 l/m 0,0 km/h (0 Bft) W 275 0 min 0,000 mm 0,0 UV-I 0 W/m 1,1 C 4,1 C 1,6 km/h (1 Bft) 98,00 %
02.03.2017 00:26 4,0 C 80 % 1008,4 hPa 0,0 l/m 0,5 km/h (0 Bft) W 275 0 min 0,000 mm 0,0 UV-I 0 W/m 0,9 C 4,0 C 1,6 km/h (1 Bft) 97,56 %
02.03.2017 00:28 4,1 C 79 % 1008,3 hPa 0,0 l/m 1,4 km/h (1 Bft) W 275 0 min 0,000 mm 0,0 UV-I 0 W/m 0,8 C 4,1 C 3,2 km/h (1 Bft) 98,00 %
02.03.2017 00:30 4,1 C 80 % 1008,4 hPa 0,0 l/m 0,4 km/h (0 Bft) W 275 0 min 0,000 mm 0,0 UV-I 0 W/m 1,0 C 4,1 C 3,2 km/h (1 Bft) 100,00 %
02.03.2017 00:32 4,1 C 79 % 1008,3 hPa 0,0 l/m 0,7 km/h (0 Bft) W 275 0 min 0,000 mm 0,0 UV-I 0 W/m 0,8 C 4,1 C 3,2 km/h (1 Bft) 96,00 %
02.03.2017 00:34 4,1 C 79 % 1008,2 hPa 0,0 l/m 3,5 km/h (1 Bft) O-NO 59 0 min 0,000 mm 0,0 UV-I 0 W/m 0,8 C 4,1 C 6,4 km/h (2 Bft) 100,00 %
02.03.2017 00:36 4,1 C 80 % 1008,2 hPa 0,0 l/m 3,4 km/h (1 Bft) O-SO 122 0 min 0,000 mm 0,0 UV-I 0 W/m 1,0 C 4,1 C 6,4 km/h (2 Bft) 97,62 %
02.03.2017 00:38 4,1 C 80 % 1008,3 hPa 0,0 l/m 1,8 km/h (1 Bft) NW 318 0 min 0,000 mm 0,0 UV-I 0 W/m 1,0 C 4,1 C 4,8 km/h (1 Bft) 98,00 %
02.03.2017 00:40 4,1 C 80 % 1008,3 hPa 0,0 l/m 0,1 km/h (0 Bft) NW 318 0 min 0,000 mm 0,0 UV-I 0 W/m 1,0 C 4,1 C 1,6 km/h (1 Bft) 94,29 %
02.03.2017 00:42 4,1 C 81 % 1008,3 hPa 0,0 l/m 0,0 km/h (0 Bft) NW 318 0 min 0,000 mm 0,0 UV-I 0 W/m 1,1 C 4,1 C 0,0 km/h (0 Bft) 96,00 %
02.03.2017 00:44 4,0 C 80 % 1008,3 hPa 0,0 l/m 0,9 km/h (0 Bft) NW 318 0 min 0,000 mm 0,0 UV-I 0 W/m 0,9 C 4,0 C 3,2 km/h (1 Bft) 97,87 %
02.03.2017 00:46 4,0 C 81 % 1008,2 hPa 0,0 l/m 0,4 km/h (0 Bft) NW 318 0 min 0,000 mm 0,0 UV-I 0 W/m 1,0 C 4,0 C 1,6 km/h (1 Bft) 95,74 %
02.03.2017 00:48 3,9 C 82 % 1008,2 hPa 0,0 l/m 0,0 km/h (0 Bft) NW 318 0 min 0,000 mm 0,0 UV-I 0 W/m 1,1 C 3,9 C 0,0 km/h (0 Bft) 97,92 %
02.03.2017 00:50 3,8 C 82 % 1008,2 hPa 0,0 l/m 1,4 km/h (1 Bft) NW 318 0 min 0,000 mm 0,0 UV-I 0 W/m 1,0 C 3,8 C 1,6 km/h (1 Bft) 93,62 %
02.03.2017 00:52 3,8 C 82 % 1008,3 hPa 0,0 l/m 2,6 km/h (1 Bft) SO 138 0 min 0,000 mm 0,0 UV-I 0 W/m 1,0 C 3,8 C 8,0 km/h (2 Bft) 97,73 %
02.03.2017 00:54 3,9 C 82 % 1008,3 hPa 0,0 l/m 5,5 km/h (1 Bft) SW 229 0 min 0,000 mm 0,0 UV-I 0 W/m 1,1 C 3,9 C 9,7 km/h (2 Bft) 92,86 %
02.03.2017 00:56 3,9 C 82 % 1008,3 hPa 0,0 l/m 1,5 km/h (1 Bft) SW 229 0 min 0,000 mm 0,0 UV-I 0 W/m 1,1 C 3,9 C 3,2 km/h (1 Bft) 96,00 %
02.03.2017 00:58 3,9 C 82 % 1008,4 hPa 0,0 l/m 4,4 km/h (1 Bft) W-SW 256 0 min 0,000 mm 0,0 UV-I 0 W/m 1,1 C 3,9 C 8,0 km/h (2 Bft) 94,29 %
02.03.2017 01:00 3,9 C 82 % 1008,2 hPa 0,0 l/m 1,0 km/h (0 Bft) W-SW 256 0 min 0,000 mm 0,0 UV-I 0 W/m 1,1 C 3,9 C 3,2 km/h (1 Bft) 97,87 %
02.03.2017 01:02 3,9 C 82 % 1008,2 hPa 0,0 l/m 0,3 km/h (0 Bft) W-SW 256 0 min 0,000 mm 0,0 UV-I 0 W/m 1,1 C 3,9 C 1,6 km/h (1 Bft) 96,00 %
02.03.2017 01:04 3,9 C 82 % 1008,2 hPa 0,0 l/m 1,4 km/h (1 Bft) W 277 0 min 0,000 mm 0,0 UV-I 0 W/m 1,1 C 3,9 C 3,2 km/h (1 Bft) 97,87 %
02.03.2017 01:06 3,9 C 83 % 1008,2 hPa 0,0 l/m 2,3 km/h (1 Bft) W 270 0 min 0,000 mm 0,0 UV-I 0 W/m 1,3 C 3,9 C 4,8 km/h (1 Bft) 94,34 %
02.03.2017 01:08 3,9 C 83 % 1008,3 hPa 0,0 l/m 4,2 km/h (1 Bft) W 280 0 min 0,000 mm 0,0 UV-I 0 W/m 1,3 C 3,9 C 4,8 km/h (1 Bft) 94,74 %
02.03.2017 01:10 3,8 C 83 % 1008,1 hPa 0,0 l/m 0,8 km/h (0 Bft) W 280 0 min 0,000 mm 0,0 UV-I 0 W/m 1,2 C 3,8 C 3,2 km/h (1 Bft) 98,00 %
02.03.2017 01:12 3,8 C 84 % 1008,2 hPa 0,0 l/m 0,8 km/h (0 Bft) S 171 0 min 0,000 mm 0,0 UV-I 0 W/m 1,4 C 3,8 C 3,2 km/h (1 Bft) 96,00 %
02.03.2017 01:14 3,8 C 84 % 1008,2 hPa 0,0 l/m 2,7 km/h (1 Bft) S-SO 165 0 min 0,000 mm 0,0 UV-I 0 W/m 1,4 C 3,8 C 6,4 km/h (2 Bft) 97,37 %
02.03.2017 01:16 3,8 C 85 % 1008,2 hPa 0,0 l/m 3,2 km/h (1 Bft) S-SO 159 0 min 0,000 mm 0,0 UV-I 0 W/m 1,5 C 3,8 C 6,4 km/h (2 Bft) 96,00 %
02.03.2017 01:18 3,7 C 85 % 1008,2 hPa 0,0 l/m 0,6 km/h (0 Bft) S-SO 159 0 min 0,000 mm 0,0 UV-I 0 W/m 1,4 C 3,7 C 1,6 km/h (1 Bft) 100,00 %
02.03.2017 01:20 3,7 C 85 % 1008,1 hPa 0,0 l/m 1,8 km/h (1 Bft) S-SO 159 0 min 0,000 mm 0,0 UV-I 0 W/m 1,4 C 3,7 C 3,2 km/h (1 Bft) 100,00 %
02.03.2017 01:22 3,7 C 86 % 1008,1 hPa 0,0 l/m 0,0 km/h (0 Bft) S-SO 159 0 min 0,000 mm 0,0 UV-I 0 W/m 1,6 C 3,7 C 0,0 km/h (0 Bft) 98,51 %
02.03.2017 01:24 3,7 C 86 % 1008,2 hPa 0,0 l/m 0,5 km/h (0 Bft) S-SO 159 0 min 0,000 mm 0,0 UV-I 0 W/m 1,6 C 3,7 C 3,2 km/h (1 Bft) 97,37 %
02.03.2017 01:26 3,7 C 86 % 1008,1 hPa 0,0 l/m 0,9 km/h (0 Bft) S-SO 159 0 min 0,000 mm 0,0 UV-I 0 W/m 1,6 C 3,7 C 3,2 km/h (1 Bft) 98,11 %
02.03.2017 01:28 3,8 C 85 % 1008,2 hPa 0,0 l/m 3,0 km/h (1 Bft) S-SO 160 0 min 0,000 mm 0,0 UV-I 0 W/m 1,5 C 3,8 C 6,4 km/h (2 Bft) 97,87 %
02.03.2017 01:30 3,8 C 85 % 1008,1 hPa 0,0 l/m 0,6 km/h (0 Bft) S-SO 160 0 min 0,000 mm 0,0 UV-I 0 W/m 1,5 C 3,8 C 3,2 km/h (1 Bft) 93,62 %
02.03.2017 01:32 3,8 C 85 % 1008,2 hPa 0,0 l/m 1,4 km/h (1 Bft) S-SO 160 0 min 0,000 mm 0,0 UV-I 0 W/m 1,5 C 3,8 C 6,4 km/h (2 Bft) 100,00 %
02.03.2017 01:34 3,8 C 85 % 1008,2 hPa 0,0 l/m 0,4 km/h (0 Bft) S-SO 160 0 min 0,000 mm 0,0 UV-I 0 W/m 1,5 C 3,8 C 3,2 km/h (1 Bft) 98,00 %
02.03.2017 01:36 3,8 C 85 % 1008,2 hPa 0,0 l/m 0,5 km/h (0 Bft) S-SO 159 0 min 0,000 mm 0,0 UV-I 0 W/m 1,5 C 3,8 C 6,4 km/h (2 Bft) 100,00 %
02.03.2017 01:38 3,8 C 85 % 1008,1 hPa 0,0 l/m 3,5 km/h (1 Bft) W-NW 283 0 min 0,000 mm 0,0 UV-I 0 W/m 1,5 C 3,8 C 6,4 km/h (2 Bft) 97,37 %
02.03.2017 01:40 3,8 C 85 % 1008,1 hPa 0,0 l/m 0,5 km/h (0 Bft) NW 313 0 min 0,000 mm 0,0 UV-I 0 W/m 1,5 C 3,8 C 3,2 km/h (1 Bft) 100,00 %
02.03.2017 01:42 3,8 C 85 % 1008,1 hPa 0,0 l/m 0,0 km/h (0 Bft) NW 313 0 min 0,000 mm 0,0 UV-I 0 W/m 1,5 C 3,8 C 0,0 km/h (0 Bft) 98,00 %
02.03.2017 01:44 3,8 C 85 % 1008,2 hPa 0,0 l/m 1,0 km/h (0 Bft) NW 313 0 min 0,000 mm 0,0 UV-I 0 W/m 1,5 C 3,8 C 3,2 km/h (1 Bft) 97,87 %
02.03.2017 01:46 3,8 C 86 % 1008,2 hPa 0,0 l/m 0,0 km/h (0 Bft) NW 313 0 min 0,000 mm 0,0 UV-I 0 W/m 1,7 C 3,8 C 0,0 km/h (0 Bft) 98,00 %
02.03.2017 01:48 3,8 C 86 % 1008,2 hPa 0,0 l/m 0,0 km/h (0 Bft) NW 313 0 min 0,000 mm 0,0 UV-I 0 W/m 1,7 C 3,8 C 0,0 km/h (0 Bft) 95,74 %
02.03.2017 01:50 3,8 C 86 % 1008,1 hPa 0,0 l/m 0,1 km/h (0 Bft) NW 313 0 min 0,000 mm 0,0 UV-I 0 W/m 1,7 C 3,8 C 1,6 km/h (1 Bft) 95,74 %
02.03.2017 01:52 3,7 C 86 % 1008,2 hPa 0,0 l/m 1,0 km/h (0 Bft) NW 313 0 min 0,000 mm 0,0 UV-I 0 W/m 1,6 C 3,7 C 3,2 km/h (1 Bft) 97,87 %
02.03.2017 01:54 3,7 C 86 % 1008,2 hPa 0,0 l/m 0,0 km/h (0 Bft) NW 313 0 min 0,000 mm 0,0 UV-I 0 W/m 1,6 C 3,7 C 0,0 km/h (0 Bft) 97,14 %
02.03.2017 01:56 3,7 C 87 % 1008,2 hPa 0,0 l/m 0,1 km/h (0 Bft) NW 313 0 min 0,000 mm 0,0 UV-I 0 W/m 1,7 C 3,7 C 1,6 km/h (1 Bft) 98,21 %
02.03.2017 01:58 3,7 C 87 % 1008,3 hPa 0,0 l/m 0,7 km/h (0 Bft) S 181 0 min 0,000 mm 0,0 UV-I 0 W/m 1,7 C 3,7 C 3,2 km/h (1 Bft) 94,74 %
02.03.2017 02:00 3,7 C 88 % 1008,4 hPa 0,0 l/m 2,3 km/h (1 Bft) S 183 0 min 0,000 mm 0,0 UV-I 0 W/m 1,9 C 3,7 C 6,4 km/h (2 Bft) 100,00 %
02.03.2017 02:02 3,7 C 88 % 1008,4 hPa 0,0 l/m 2,4 km/h (1 Bft) S 187 0 min 0,000 mm 0,0 UV-I 0 W/m 1,9 C 3,7 C 8,0 km/h (2 Bft) 98,00 %
02.03.2017 02:04 3,6 C 89 % 1008,4 hPa 0,0 l/m 0,1 km/h (0 Bft) S 187 0 min 0,000 mm 0,0 UV-I 0 W/m 2,0 C 3,6 C 1,6 km/h (1 Bft) 98,11 %
02.03.2017 02:06 3,6 C 89 % 1008,4 hPa 0,0 l/m 1,4 km/h (1 Bft) S 187 0 min 0,000 mm 0,0 UV-I 0 W/m 2,0 C 3,6 C 3,2 km/h (1 Bft) 100,00 %
02.03.2017 02:08 3,6 C 89 % 1008,5 hPa 0,0 l/m 2,3 km/h (1 Bft) S 187 0 min 0,000 mm 0,0 UV-I 0 W/m 2,0 C 3,6 C 4,8 km/h (1 Bft) 97,44 %
02.03.2017 02:10 3,6 C 89 % 1008,5 hPa 0,2 l/m 3,1 km/h (1 Bft) S 187 0 min 0,000 mm 0,0 UV-I 0 W/m 2,0 C 3,6 C 4,8 km/h (1 Bft) 100,00 %
02.03.2017 02:12 3,6 C 89 % 1008,4 hPa 0,0 l/m 0,4 km/h (0 Bft) S 187 0 min 0,000 mm 0,0 UV-I 0 W/m 2,0 C 3,6 C 1,6 km/h (1 Bft) 95,74 %
02.03.2017 02:14 3,6 C 90 % 1008,4 hPa 0,0 l/m 0,1 km/h (0 Bft) S 187 0 min 0,000 mm 0,0 UV-I 0 W/m 2,1 C 3,6 C 1,6 km/h (1 Bft) 100,00 %
02.03.2017 02:16 3,6 C 90 % 1008,4 hPa 0,0 l/m 0,4 km/h (0 Bft) S 187 0 min 0,000 mm 0,0 UV-I 0 W/m 2,1 C 3,6 C 1,6 km/h (1 Bft) 100,00 %
02.03.2017 02:18 3,6 C 90 % 1008,4 hPa 0,0 l/m 0,0 km/h (0 Bft) S 187 0 min 0,000 mm 0,0 UV-I 0 W/m 2,1 C 3,6 C 0,0 km/h (0 Bft) 100,00 %
02.03.2017 02:20 3,6 C 90 % 1008,4 hPa 0,0 l/m 0,4 km/h (0 Bft) S 187 0 min 0,000 mm 0,0 UV-I 0 W/m 2,1 C 3,6 C 3,2 km/h (1 Bft) 96,00 %
02.03.2017 02:22 3,5 C 91 % 1008,3 hPa 0,0 l/m 3,2 km/h (1 Bft) S 187 0 min 0,000 mm 0,0 UV-I 0 W/m 2,2 C 3,5 C 4,8 km/h (1 Bft) 94,74 %
02.03.2017 02:24 3,4 C 91 % 1008,1 hPa 0,0 l/m 2,0 km/h (1 Bft) S 187 0 min 0,000 mm 0,0 UV-I 0 W/m 2,1 C 3,4 C 3,2 km/h (1 Bft) 96,23 %
02.03.2017 02:26 3,4 C 91 % 1008,1 hPa 0,2 l/m 2,2 km/h (1 Bft) S 187 0 min 0,000 mm 0,0 UV-I 0 W/m 2,1 C 3,4 C 3,2 km/h (1 Bft) 97,87 %
02.03.2017 02:28 3,4 C 90 % 1008,2 hPa 0,0 l/m 2,0 km/h (1 Bft) S 187 0 min 0,000 mm 0,0 UV-I 0 W/m 1,9 C 3,4 C 3,2 km/h (1 Bft) 93,62 %
02.03.2017 02:30 3,5 C 90 % 1008,2 hPa 0,0 l/m 1,5 km/h (1 Bft) S 186 0 min 0,000 mm 0,0 UV-I 0 W/m 2,0 C 3,5 C 4,8 km/h (1 Bft) 95,74 %
02.03.2017 02:32 3,4 C 91 % 1008,3 hPa 0,2 l/m 0,0 km/h (0 Bft) S 186 0 min 0,000 mm 0,0 UV-I 0 W/m 2,1 C 3,4 C 0,0 km/h (0 Bft) 95,74 %
02.03.2017 02:34 3,4 C 91 % 1008,3 hPa 0,0 l/m 0,0 km/h (0 Bft) S 186 0 min 0,000 mm 0,0 UV-I 0 W/m 2,1 C 3,4 C 0,0 km/h (0 Bft) 94,00 %
02.03.2017 02:36 3,4 C 92 % 1008,3 hPa 0,0 l/m 0,1 km/h (0 Bft) S 186 0 min 0,000 mm 0,0 UV-I 0 W/m 2,2 C 3,4 C 1,6 km/h (1 Bft) 95,74 %
02.03.2017 02:38 3,3 C 92 % 1008,3 hPa 0,0 l/m 0,0 km/h (0 Bft) S 186 0 min 0,000 mm 0,0 UV-I 0 W/m 2,1 C 3,3 C 0,0 km/h (0 Bft) 97,37 %
02.03.2017 02:40 3,3 C 92 % 1008,4 hPa 0,2 l/m 0,0 km/h (0 Bft) S 186 0 min 0,000 mm 0,0 UV-I 0 W/m 2,1 C 3,3 C 1,6 km/h (1 Bft) 96,00 %
02.03.2017 02:42 3,3 C 92 % 1008,5 hPa 0,0 l/m 0,9 km/h (0 Bft) S 186 0 min 0,000 mm 0,0 UV-I 0 W/m 2,1 C 3,3 C 3,2 km/h (1 Bft) 95,74 %
02.03.2017 02:44 3,3 C 92 % 1008,4 hPa 0,0 l/m 0,4 km/h (0 Bft) S 186 0 min 0,000 mm 0,0 UV-I 0 W/m 2,1 C 3,3 C 1,6 km/h (1 Bft) 96,00 %
02.03.2017 02:46 3,3 C 93 % 1008,4 hPa 0,2 l/m 0,0 km/h (0 Bft) S 186 0 min 0,000 mm 0,0 UV-I 0 W/m 2,3 C 3,3 C 0,0 km/h (0 Bft) 95,74 %
02.03.2017 02:48 3,3 C 93 % 1008,4 hPa 0,0 l/m 0,0 km/h (0 Bft) S 186 0 min 0,000 mm 0,0 UV-I 0 W/m 2,3 C 3,3 C 0,0 km/h (0 Bft) 92,31 %
02.03.2017 02:50 3,3 C 93 % 1008,4 hPa 0,0 l/m 0,0 km/h (0 Bft) S 186 0 min 0,000 mm 0,0 UV-I 0 W/m 2,3 C 3,3 C 1,6 km/h (1 Bft) 94,00 %
02.03.2017 02:52 3,3 C 93 % 1008,4 hPa 0,2 l/m 0,1 km/h (0 Bft) S 186 0 min 0,000 mm 0,0 UV-I 0 W/m 2,3 C 3,3 C 1,6 km/h (1 Bft) 92,45 %
02.03.2017 02:54 3,3 C 93 % 1008,4 hPa 0,0 l/m 2,4 km/h (1 Bft) S 186 0 min 0,000 mm 0,0 UV-I 0 W/m 2,3 C 3,3 C 3,2 km/h (1 Bft) 92,11 %
02.03.2017 02:56 3,2 C 93 % 1008,4 hPa 0,0 l/m 2,6 km/h (1 Bft) S 186 0 min 0,000 mm 0,0 UV-I 0 W/m 2,2 C 3,2 C 3,2 km/h (1 Bft) 96,00 %
02.03.2017 02:58 3,2 C 93 % 1008,4 hPa 0,2 l/m 2,8 km/h (1 Bft) S 186 0 min 0,000 mm 0,0 UV-I 0 W/m 2,2 C 3,2 C 3,2 km/h (1 Bft) 92,00 %
02.03.2017 03:00 3,2 C 94 % 1008,4 hPa 0,0 l/m 2,1 km/h (1 Bft) S 186 0 min 0,000 mm 0,0 UV-I 0 W/m 2,3 C 3,2 C 3,2 km/h (1 Bft) 93,62 %
02.03.2017 03:02 3,2 C 94 % 1008,4 hPa 0,0 l/m 3,0 km/h (1 Bft) S 186 0 min 0,000 mm 0,0 UV-I 0 W/m 2,3 C 3,2 C 3,2 km/h (1 Bft) 92,68 %
02.03.2017 03:04 3,1 C 94 % 1008,3 hPa 0,0 l/m 1,4 km/h (1 Bft) S 186 0 min 0,000 mm 0,0 UV-I 0 W/m 2,2 C 3,1 C 3,2 km/h (1 Bft) 96,00 %
02.03.2017 03:06 3,1 C 94 % 1008,3 hPa 0,2 l/m 0,0 km/h (0 Bft) S 186 0 min 0,000 mm 0,0 UV-I 0 W/m 2,2 C 3,1 C 0,0 km/h (0 Bft) 94,34 %
02.03.2017 03:08 3,1 C 94 % 1008,3 hPa 0,0 l/m 0,0 km/h (0 Bft) S 186 0 min 0,000 mm 0,0 UV-I 0 W/m 2,2 C 3,1 C 0,0 km/h (0 Bft) 97,37 %
02.03.2017 03:10 3,1 C 94 % 1008,4 hPa 0,2 l/m 0,0 km/h (0 Bft) S 186 0 min 0,000 mm 0,0 UV-I 0 W/m 2,2 C 3,1 C 0,0 km/h (0 Bft) 96,00 %
02.03.2017 03:12 3,1 C 95 % 1008,4 hPa 0,0 l/m 0,0 km/h (0 Bft) S 186 0 min 0,000 mm 0,0 UV-I 0 W/m 2,4 C 3,1 C 0,0 km/h (0 Bft) 98,00 %
02.03.2017 03:14 3,2 C 95 % 1008,4 hPa 0,0 l/m 0,0 km/h (0 Bft) S 186 0 min 0,000 mm 0,0 UV-I 0 W/m 2,5 C 3,2 C 0,0 km/h (0 Bft) 97,56 %
02.03.2017 03:16 3,2 C 95 % 1008,4 hPa 0,0 l/m 1,2 km/h (1 Bft) S 186 0 min 0,000 mm 0,0 UV-I 0 W/m 2,5 C 3,2 C 3,2 km/h (1 Bft) 98,00 %
02.03.2017 03:18 3,2 C 95 % 1008,5 hPa 0,2 l/m 1,4 km/h (1 Bft) S 186 0 min 0,000 mm 0,0 UV-I 0 W/m 2,5 C 3,2 C 3,2 km/h (1 Bft) 94,74 %
02.03.2017 03:20 3,2 C 95 % 1008,5 hPa 0,0 l/m 1,6 km/h (1 Bft) S 186 0 min 0,000 mm 0,0 UV-I 0 W/m 2,5 C 3,2 C 3,2 km/h (1 Bft) 96,00 %
02.03.2017 03:22 3,1 C 95 % 1008,5 hPa 0,2 l/m 0,1 km/h (0 Bft) S 186 0 min 0,000 mm 0,0 UV-I 0 W/m 2,4 C 3,1 C 1,6 km/h (1 Bft) 98,00 %
02.03.2017 03:24 3,1 C 95 % 1008,5 hPa 0,0 l/m 0,8 km/h (0 Bft) S 186 0 min 0,000 mm 0,0 UV-I 0 W/m 2,4 C 3,1 C 3,2 km/h (1 Bft) 98,00 %
02.03.2017 03:26 3,1 C 95 % 1008,6 hPa 0,2 l/m 1,4 km/h (1 Bft) S 186 0 min 0,000 mm 0,0 UV-I 0 W/m 2,4 C 3,1 C 3,2 km/h (1 Bft) 98,00 %
02.03.2017 03:28 3,1 C 95 % 1008,7 hPa 0,0 l/m 1,6 km/h (1 Bft) S 186 0 min 0,000 mm 0,0 UV-I 0 W/m 2,4 C 3,1 C 3,2 km/h (1 Bft) 97,44 %
02.03.2017 03:30 3,1 C 95 % 1008,7 hPa 0,2 l/m 0,6 km/h (0 Bft) S 186 0 min 0,000 mm 0,0 UV-I 0 W/m 2,4 C 3,1 C 1,6 km/h (1 Bft) 97,87 %
02.03.2017 03:32 3,1 C 95 % 1008,7 hPa 0,0 l/m 0,4 km/h (0 Bft) S 186 0 min 0,000 mm 0,0 UV-I 0 W/m 2,4 C 3,1 C 3,2 km/h (1 Bft) 100,00 %
02.03.2017 03:34 3,1 C 95 % 1008,8 hPa 0,2 l/m 0,2 km/h (0 Bft) S 186 0 min 0,000 mm 0,0 UV-I 0 W/m 2,4 C 3,1 C 1,6 km/h (1 Bft) 96,43 %
02.03.2017 03:36 3,1 C 95 % 1008,8 hPa 0,0 l/m 0,0 km/h (0 Bft) S 186 0 min 0,000 mm 0,0 UV-I 0 W/m 2,4 C 3,1 C 0,0 km/h (0 Bft) 100,00 %
02.03.2017 03:38 3,2 C 95 % 1008,7 hPa 0,2 l/m 0,0 km/h (0 Bft) S 186 0 min 0,000 mm 0,0 UV-I 0 W/m 2,5 C 3,2 C 0,0 km/h (0 Bft) 97,14 %
02.03.2017 03:40 3,2 C 95 % 1008,7 hPa 0,0 l/m 0,0 km/h (0 Bft) S 186 0 min 0,000 mm 0,0 UV-I 0 W/m 2,5 C 3,2 C 0,0 km/h (0 Bft) 98,31 %
02.03.2017 03:42 3,1 C 95 % 1008,6 hPa 0,2 l/m 0,0 km/h (0 Bft) S 186 0 min 0,000 mm 0,0 UV-I 0 W/m 2,4 C 3,1 C 0,0 km/h (0 Bft) 100,00 %
02.03.2017 03:44 3,1 C 95 % 1008,7 hPa 0,0 l/m 1,5 km/h (1 Bft) S 186 0 min 0,000 mm 0,0 UV-I 0 W/m 2,4 C 3,1 C 3,2 km/h (1 Bft) 98,11 %
02.03.2017 03:46 3,1 C 95 % 1008,6 hPa 0,2 l/m 1,8 km/h (1 Bft) S 186 0 min 0,000 mm 0,0 UV-I 0 W/m 2,4 C 3,1 C 3,2 km/h (1 Bft) 97,87 %
02.03.2017 03:48 3,1 C 95 % 1008,6 hPa 0,0 l/m 2,1 km/h (1 Bft) S 186 0 min 0,000 mm 0,0 UV-I 0 W/m 2,4 C 3,1 C 3,2 km/h (1 Bft) 97,37 %
02.03.2017 03:50 3,1 C 95 % 1008,6 hPa 0,0 l/m 2,7 km/h (1 Bft) S 186 0 min 0,000 mm 0,0 UV-I 0 W/m 2,4 C 3,1 C 4,8 km/h (1 Bft) 100,00 %
02.03.2017 03:52 3,1 C 95 % 1008,5 hPa 0,2 l/m 3,2 km/h (1 Bft) S-SO 161 0 min 0,000 mm 0,0 UV-I 0 W/m 2,4 C 3,1 C 8,0 km/h (2 Bft) 97,37 %
02.03.2017 03:54 3,1 C 95 % 1008,5 hPa 0,0 l/m 4,3 km/h (1 Bft) SO 141 0 min 0,000 mm 0,0 UV-I 0 W/m 2,4 C 3,1 C 6,4 km/h (2 Bft) 97,87 %
02.03.2017 03:56 3,1 C 95 % 1008,5 hPa 0,0 l/m 3,2 km/h (1 Bft) SO 141 0 min 0,000 mm 0,0 UV-I 0 W/m 2,4 C 3,1 C 4,8 km/h (1 Bft) 100,00 %
02.03.2017 03:58 3,1 C 95 % 1008,5 hPa 0,2 l/m 3,9 km/h (1 Bft) SO 141 0 min 0,000 mm 0,0 UV-I 0 W/m 2,4 C 3,1 C 4,8 km/h (1 Bft) 94,00 %
02.03.2017 04:00 3,1 C 95 % 1008,4 hPa 0,0 l/m 4,5 km/h (1 Bft) SO 140 0 min 0,000 mm 0,0 UV-I 0 W/m 2,4 C 3,1 C 4,8 km/h (1 Bft) 97,87 %
02.03.2017 04:02 3,1 C 95 % 1008,3 hPa 0,0 l/m 5,1 km/h (1 Bft) O-SO 123 0 min 0,000 mm 0,0 UV-I 0 W/m 2,4 C 3,1 C 6,4 km/h (2 Bft) 100,00 %
02.03.2017 04:04 3,1 C 95 % 1008,3 hPa 0,0 l/m 6,3 km/h (2 Bft) O-SO 121 0 min 0,000 mm 0,0 UV-I 0 W/m 2,4 C 3,1 C 8,0 km/h (2 Bft) 97,37 %
02.03.2017 04:06 3,1 C 95 % 1008,3 hPa 0,2 l/m 3,0 km/h (1 Bft) O-SO 122 0 min 0,000 mm 0,0 UV-I 0 W/m 2,4 C 3,1 C 6,4 km/h (2 Bft) 100,00 %
02.03.2017 04:08 3,1 C 95 % 1008,2 hPa 0,0 l/m 2,1 km/h (1 Bft) SO 138 0 min 0,000 mm 0,0 UV-I 0 W/m 2,4 C 3,1 C 8,0 km/h (2 Bft) 100,00 %
02.03.2017 04:10 3,1 C 95 % 1008,3 hPa 0,2 l/m 7,0 km/h (2 Bft) SO 136 0 min 0,000 mm 0,0 UV-I 0 W/m 2,4 C 2,5 C 12,9 km/h (3 Bft) 97,62 %
02.03.2017 04:12 3,1 C 95 % 1008,2 hPa 0,0 l/m 9,6 km/h (2 Bft) O-SO 115 0 min 0,000 mm 0,0 UV-I 0 W/m 2,4 C 0,3 C 14,5 km/h (3 Bft) 100,00 %
02.03.2017 04:14 3,1 C 95 % 1008,2 hPa 0,0 l/m 6,0 km/h (2 Bft) S-SO 151 0 min 0,000 mm 0,0 UV-I 0 W/m 2,4 C 3,1 C 11,3 km/h (2 Bft) 96,23 %
02.03.2017 04:16 3,1 C 95 % 1008,2 hPa 0,0 l/m 4,1 km/h (1 Bft) S-SO 150 0 min 0,000 mm 0,0 UV-I 0 W/m 2,4 C 3,1 C 8,0 km/h (2 Bft) 100,00 %
02.03.2017 04:18 3,1 C 95 % 1008,2 hPa 0,2 l/m 3,5 km/h (1 Bft) SO 126 0 min 0,000 mm 0,0 UV-I 0 W/m 2,4 C 3,1 C 6,4 km/h (2 Bft) 96,23 %
02.03.2017 04:20 3,1 C 96 % 1008,2 hPa 0,2 l/m 5,6 km/h (1 Bft) SO 129 0 min 0,000 mm 0,0 UV-I 0 W/m 2,5 C 3,1 C 9,7 km/h (2 Bft) 95,45 %
02.03.2017 04:22 3,1 C 95 % 1008,2 hPa 0,0 l/m 5,3 km/h (1 Bft) S-SO 148 0 min 0,000 mm 0,0 UV-I 0 W/m 2,4 C 3,1 C 11,3 km/h (2 Bft) 98,11 %
02.03.2017 04:24 3,2 C 95 % 1008,2 hPa 0,0 l/m 4,2 km/h (1 Bft) S-SO 155 0 min 0,000 mm 0,0 UV-I 0 W/m 2,5 C 3,2 C 6,4 km/h (2 Bft) 97,37 %
02.03.2017 04:26 3,2 C 95 % 1008,3 hPa 0,0 l/m 2,8 km/h (1 Bft) SO 139 0 min 0,000 mm 0,0 UV-I 0 W/m 2,5 C 3,2 C 4,8 km/h (1 Bft) 98,21 %
02.03.2017 04:28 3,2 C 95 % 1008,3 hPa 0,0 l/m 4,4 km/h (1 Bft) S-SO 159 0 min 0,000 mm 0,0 UV-I 0 W/m 2,5 C 3,2 C 9,7 km/h (2 Bft) 98,00 %
02.03.2017 04:30 3,2 C 95 % 1008,3 hPa 0,2 l/m 4,0 km/h (1 Bft) SO 143 0 min 0,000 mm 0,0 UV-I 0 W/m 2,5 C 3,2 C 9,7 km/h (2 Bft) 94,74 %
02.03.2017 04:32 3,2 C 95 % 1008,3 hPa 0,0 l/m 4,3 km/h (1 Bft) SO 139 0 min 0,000 mm 0,0 UV-I 0 W/m 2,5 C 3,2 C 9,7 km/h (2 Bft) 100,00 %
02.03.2017 04:34 3,3 C 95 % 1008,2 hPa 0,2 l/m 5,5 km/h (1 Bft) S-SO 147 0 min 0,000 mm 0,0 UV-I 0 W/m 2,6 C 3,3 C 12,9 km/h (3 Bft) 97,73 %
02.03.2017 04:36 3,3 C 95 % 1008,2 hPa 0,0 l/m 5,0 km/h (1 Bft) S-SO 159 0 min 0,000 mm 0,0 UV-I 0 W/m 2,6 C 3,3 C 9,7 km/h (2 Bft) 96,00 %
02.03.2017 04:38 3,3 C 95 % 1008,2 hPa 0,0 l/m 5,6 km/h (1 Bft) SO 141 0 min 0,000 mm 0,0 UV-I 0 W/m 2,6 C 3,3 C 12,9 km/h (3 Bft) 97,87 %
02.03.2017 04:40 3,3 C 95 % 1008,2 hPa 0,0 l/m 5,2 km/h (1 Bft) S-SO 148 0 min 0,000 mm 0,0 UV-I 0 W/m 2,6 C 3,3 C 9,7 km/h (2 Bft) 100,00 %
02.03.2017 04:42 3,3 C 95 % 1008,2 hPa 0,2 l/m 5,3 km/h (1 Bft) S-SO 167 0 min 0,000 mm 0,0 UV-I 0 W/m 2,6 C 3,3 C 9,7 km/h (2 Bft) 95,74 %
02.03.2017 04:44 3,4 C 95 % 1008,1 hPa 0,0 l/m 6,5 km/h (2 Bft) S-SO 150 0 min 0,000 mm 0,0 UV-I 0 W/m 2,7 C 3,3 C 14,5 km/h (3 Bft) 98,00 %
02.03.2017 04:46 3,4 C 95 % 1008,1 hPa 0,2 l/m 8,4 km/h (2 Bft) SO 144 0 min 0,000 mm 0,0 UV-I 0 W/m 2,7 C 1,6 C 14,5 km/h (3 Bft) 97,87 %
02.03.2017 04:48 3,4 C 95 % 1008,1 hPa 0,0 l/m 6,7 km/h (2 Bft) S-SO 165 0 min 0,000 mm 0,0 UV-I 0 W/m 2,7 C 3,1 C 12,9 km/h (3 Bft) 97,87 %
02.03.2017 04:50 3,4 C 95 % 1008,1 hPa 0,0 l/m 7,9 km/h (2 Bft) S-SO 159 0 min 0,000 mm 0,0 UV-I 0 W/m 2,7 C 2,0 C 14,5 km/h (3 Bft) 100,00 %
02.03.2017 04:52 3,4 C 95 % 1008,1 hPa 0,0 l/m 7,0 km/h (2 Bft) SO 138 0 min 0,000 mm 0,0 UV-I 0 W/m 2,7 C 2,8 C 12,9 km/h (3 Bft) 95,74 %
02.03.2017 04:54 3,4 C 95 % 1008,1 hPa 0,2 l/m 6,1 km/h (2 Bft) SO 144 0 min 0,000 mm 0,0 UV-I 0 W/m 2,7 C 3,4 C 12,9 km/h (3 Bft) 97,87 %
02.03.2017 04:56 3,4 C 95 % 1008,1 hPa 0,0 l/m 6,4 km/h (2 Bft) SO 142 0 min 0,000 mm 0,0 UV-I 0 W/m 2,7 C 3,4 C 16,1 km/h (3 Bft) 94,74 %
02.03.2017 04:58 3,4 C 95 % 1008,1 hPa 0,2 l/m 6,8 km/h (2 Bft) S-SO 154 0 min 0,000 mm 0,0 UV-I 0 W/m 2,7 C 3,0 C 11,3 km/h (2 Bft) 98,21 %
02.03.2017 05:00 3,5 C 95 % 1008,1 hPa 0,0 l/m 6,5 km/h (2 Bft) S 182 0 min 0,000 mm 0,0 UV-I 0 W/m 2,8 C 3,4 C 14,5 km/h (3 Bft) 97,56 %
02.03.2017 05:02 3,5 C 95 % 1008,1 hPa 0,0 l/m 7,3 km/h (2 Bft) S-SO 150 0 min 0,000 mm 0,0 UV-I 0 W/m 2,8 C 2,7 C 12,9 km/h (3 Bft) 94,74 %
02.03.2017 05:04 3,5 C 95 % 1008,0 hPa 0,2 l/m 10,0 km/h (2 Bft) SO 130 0 min 0,000 mm 0,0 UV-I 0 W/m 2,8 C 0,4 C 20,9 km/h (4 Bft) 96,43 %
02.03.2017 05:06 3,6 C 95 % 1008,1 hPa 0,0 l/m 8,1 km/h (2 Bft) SO 126 0 min 0,000 mm 0,0 UV-I 0 W/m 2,9 C 2,0 C 14,5 km/h (3 Bft) 97,37 %
02.03.2017 05:08 3,6 C 95 % 1008,1 hPa 0,2 l/m 7,3 km/h (2 Bft) S-SO 158 0 min 0,000 mm 0,0 UV-I 0 W/m 2,9 C 2,8 C 12,9 km/h (3 Bft) 98,00 %
02.03.2017 05:10 3,6 C 95 % 1008,1 hPa 0,0 l/m 6,0 km/h (2 Bft) SO 136 0 min 0,000 mm 0,0 UV-I 0 W/m 2,9 C 3,6 C 12,9 km/h (3 Bft) 92,00 %
02.03.2017 05:12 3,6 C 95 % 1008,1 hPa 0,0 l/m 6,5 km/h (2 Bft) S 171 0 min 0,000 mm 0,0 UV-I 0 W/m 2,9 C 3,5 C 12,9 km/h (3 Bft) 93,62 %
02.03.2017 05:14 3,7 C 95 % 1008,1 hPa 0,0 l/m 6,4 km/h (2 Bft) SO 142 0 min 0,000 mm 0,0 UV-I 0 W/m 3,0 C 3,7 C 16,1 km/h (3 Bft) 94,00 %
02.03.2017 05:16 3,7 C 95 % 1008,1 hPa 0,2 l/m 7,0 km/h (2 Bft) SO 139 0 min 0,000 mm 0,0 UV-I 0 W/m 3,0 C 3,1 C 12,9 km/h (3 Bft) 95,45 %
02.03.2017 05:18 3,7 C 95 % 1008,1 hPa 0,0 l/m 5,7 km/h (1 Bft) S-SO 148 0 min 0,000 mm 0,0 UV-I 0 W/m 3,0 C 3,7 C 11,3 km/h (2 Bft) 92,68 %
02.03.2017 05:20 3,7 C 95 % 1008,3 hPa 0,2 l/m 3,6 km/h (1 Bft) S-SO 153 0 min 0,000 mm 0,0 UV-I 0 W/m 3,0 C 3,7 C 8,0 km/h (2 Bft) 96,23 %
02.03.2017 05:22 3,7 C 95 % 1008,2 hPa 0,0 l/m 3,1 km/h (1 Bft) S-SW 196 0 min 0,000 mm 0,0 UV-I 0 W/m 3,0 C 3,7 C 6,4 km/h (2 Bft) 93,62 %
02.03.2017 05:24 3,8 C 95 % 1008,2 hPa 0,0 l/m 2,7 km/h (1 Bft) S 170 0 min 0,000 mm 0,0 UV-I 0 W/m 3,1 C 3,8 C 6,4 km/h (2 Bft) 97,87 %
02.03.2017 05:26 3,8 C 95 % 1008,2 hPa 0,2 l/m 3,2 km/h (1 Bft) SO 140 0 min 0,000 mm 0,0 UV-I 0 W/m 3,1 C 3,8 C 8,0 km/h (2 Bft) 91,49 %
02.03.2017 05:29 3,8 C 95 % 1008,2 hPa 0,0 l/m 3,1 km/h (1 Bft) S-SO 164 0 min 0,000 mm 0,0 UV-I 0 W/m 3,1 C 3,8 C 6,4 km/h (2 Bft) 93,85 %
02.03.2017 05:30 3,8 C 95 % 1008,1 hPa 0,0 l/m 2,3 km/h (1 Bft) S-SO 164 0 min 0,000 mm 0,0 UV-I 0 W/m 3,1 C 3,8 C 3,2 km/h (1 Bft) 96,67 %
02.03.2017 05:32 3,8 C 95 % 1008,2 hPa 0,2 l/m 3,2 km/h (1 Bft) S 175 0 min 0,000 mm 0,0 UV-I 0 W/m 3,1 C 3,8 C 6,4 km/h (2 Bft) 92,11 %
02.03.2017 05:34 3,9 C 95 % 1008,3 hPa 0,0 l/m 2,1 km/h (1 Bft) S 181 0 min 0,000 mm 0,0 UV-I 0 W/m 3,2 C 3,9 C 4,8 km/h (1 Bft) 98,00 %
02.03.2017 05:36 3,9 C 95 % 1008,3 hPa 0,0 l/m 1,3 km/h (1 Bft) S 181 0 min 0,000 mm 0,0 UV-I 0 W/m 3,2 C 3,9 C 3,2 km/h (1 Bft) 95,74 %
02.03.2017 05:38 3,9 C 95 % 1008,2 hPa 0,0 l/m 0,4 km/h (0 Bft) S 181 0 min 0,000 mm 0,0 UV-I 0 W/m 3,2 C 3,9 C 1,6 km/h (1 Bft) 95,74 %
02.03.2017 05:40 3,9 C 95 % 1008,2 hPa 0,0 l/m 0,8 km/h (0 Bft) S 181 0 min 0,000 mm 0,0 UV-I 0 W/m 3,2 C 3,9 C 3,2 km/h (1 Bft) 97,87 %
02.03.2017 05:42 3,9 C 95 % 1008,3 hPa 0,2 l/m 0,7 km/h (0 Bft) S 181 0 min 0,000 mm 0,0 UV-I 0 W/m 3,2 C 3,9 C 3,2 km/h (1 Bft) 94,00 %
02.03.2017 05:44 3,9 C 95 % 1008,4 hPa 0,0 l/m 0,0 km/h (0 Bft) S 181 0 min 0,000 mm 0,0 UV-I 0 W/m 3,2 C 3,9 C 0,0 km/h (0 Bft) 97,87 %
02.03.2017 05:46 3,9 C 95 % 1008,4 hPa 0,0 l/m 0,0 km/h (0 Bft) S 181 0 min 0,000 mm 0,0 UV-I 0 W/m 3,2 C 3,9 C 0,0 km/h (0 Bft) 96,00 %
02.03.2017 05:48 3,9 C 95 % 1008,4 hPa 0,2 l/m 0,1 km/h (0 Bft) S 181 0 min 0,000 mm 0,0 UV-I 0 W/m 3,2 C 3,9 C 1,6 km/h (1 Bft) 97,87 %
02.03.2017 05:50 3,9 C 95 % 1008,4 hPa 0,0 l/m 0,6 km/h (0 Bft) S 181 0 min 0,000 mm 0,0 UV-I 0 W/m 3,2 C 3,9 C 1,6 km/h (1 Bft) 95,45 %
02.03.2017 05:52 3,9 C 95 % 1008,4 hPa 0,0 l/m 0,4 km/h (0 Bft) S 181 0 min 0,000 mm 0,0 UV-I 0 W/m 3,2 C 3,9 C 3,2 km/h (1 Bft) 97,87 %
02.03.2017 05:54 3,9 C 95 % 1008,5 hPa 0,2 l/m 1,1 km/h (1 Bft) S 181 0 min 0,000 mm 0,0 UV-I 0 W/m 3,2 C 3,9 C 3,2 km/h (1 Bft) 100,00 %
02.03.2017 05:56 3,9 C 95 % 1008,4 hPa 0,0 l/m 1,9 km/h (1 Bft) S 181 0 min 0,000 mm 0,0 UV-I 0 W/m 3,2 C 3,9 C 3,2 km/h (1 Bft) 98,11 %
02.03.2017 05:58 4,0 C 95 % 1008,4 hPa 0,0 l/m 1,0 km/h (0 Bft) S 181 0 min 0,000 mm 0,0 UV-I 0 W/m 3,3 C 4,0 C 3,2 km/h (1 Bft) 100,00 %
02.03.2017 06:00 4,0 C 95 % 1008,5 hPa 0,0 l/m 1,6 km/h (1 Bft) S 181 0 min 0,000 mm 0,0 UV-I 0 W/m 3,3 C 4,0 C 3,2 km/h (1 Bft) 100,00 %
02.03.2017 06:02 4,0 C 95 % 1008,5 hPa 0,2 l/m 1,0 km/h (0 Bft) S 181 0 min 0,000 mm 0,0 UV-I 0 W/m 3,3 C 4,0 C 3,2 km/h (1 Bft) 96,00 %
02.03.2017 06:04 4,0 C 95 % 1008,5 hPa 0,0 l/m 1,0 km/h (0 Bft) S 181 0 min 0,000 mm 0,0 UV-I 0 W/m 3,3 C 4,0 C 3,2 km/h (1 Bft) 100,00 %
02.03.2017 06:06 4,0 C 96 % 1008,5 hPa 0,0 l/m 2,1 km/h (1 Bft) S 181 0 min 0,000 mm 0,0 UV-I 0 W/m 3,4 C 4,0 C 4,8 km/h (1 Bft) 97,44 %
02.03.2017 06:08 4,1 C 96 % 1008,5 hPa 0,2 l/m 2,5 km/h (1 Bft) S 181 0 min 0,000 mm 0,0 UV-I 0 W/m 3,5 C 4,1 C 4,8 km/h (1 Bft) 96,00 %
02.03.2017 06:10 4,1 C 96 % 1008,5 hPa 0,0 l/m 1,9 km/h (1 Bft) S 181 0 min 0,000 mm 0,0 UV-I 0 W/m 3,5 C 4,1 C 3,2 km/h (1 Bft) 100,00 %
02.03.2017 06:12 4,1 C 96 % 1008,5 hPa 0,0 l/m 0,7 km/h (0 Bft) S 181 0 min 0,000 mm 0,0 UV-I 0 W/m 3,5 C 4,1 C 3,2 km/h (1 Bft) 98,11 %
02.03.2017 06:14 4,1 C 96 % 1008,6 hPa 0,2 l/m 1,3 km/h (1 Bft) S 181 0 min 0,000 mm 0,0 UV-I 0 W/m 3,5 C 4,1 C 3,2 km/h (1 Bft) 97,56 %
02.03.2017 06:16 4,1 C 96 % 1008,6 hPa 0,0 l/m 3,7 km/h (1 Bft) S 186 0 min 0,000 mm 0,0 UV-I 0 W/m 3,5 C 4,1 C 4,8 km/h (1 Bft) 100,00 %
02.03.2017 06:18 4,1 C 96 % 1008,6 hPa 0,0 l/m 3,5 km/h (1 Bft) S 186 0 min 0,000 mm 0,0 UV-I 0 W/m 3,5 C 4,1 C 6,4 km/h (2 Bft) 100,00 %
02.03.2017 06:20 4,1 C 96 % 1008,6 hPa 0,0 l/m 4,6 km/h (1 Bft) S 188 0 min 0,000 mm 0,0 UV-I 0 W/m 3,5 C 4,1 C 6,4 km/h (2 Bft) 97,40 %
02.03.2017 06:22 4,1 C 96 % 1008,7 hPa 0,0 l/m 4,2 km/h (1 Bft) S 191 0 min 0,000 mm 0,0 UV-I 0 W/m 3,5 C 4,1 C 6,4 km/h (2 Bft) 100,00 %
02.03.2017 06:24 4,2 C 96 % 1008,6 hPa 0,2 l/m 4,6 km/h (1 Bft) S-SW 194 0 min 0,000 mm 0,0 UV-I 0 W/m 3,6 C 4,2 C 6,4 km/h (2 Bft) 98,11 %
02.03.2017 06:26 4,2 C 96 % 1008,5 hPa 0,0 l/m 3,1 km/h (1 Bft) S-SW 203 0 min 0,000 mm 0,0 UV-I 0 W/m 3,6 C 4,2 C 4,8 km/h (1 Bft) 95,74 %
02.03.2017 06:28 4,2 C 96 % 1008,5 hPa 0,0 l/m 2,9 km/h (1 Bft) S 188 0 min 0,000 mm 0,0 UV-I 0 W/m 3,6 C 4,2 C 4,8 km/h (1 Bft) 100,00 %
02.03.2017 06:30 4,3 C 96 % 1008,5 hPa 0,2 l/m 3,4 km/h (1 Bft) S 188 0 min 0,000 mm 0,0 UV-I 0 W/m 3,7 C 4,3 C 6,4 km/h (2 Bft) 100,00 %
02.03.2017 06:32 4,3 C 96 % 1008,5 hPa 0,0 l/m 2,8 km/h (1 Bft) S 188 0 min 0,000 mm 0,0 UV-I 0 W/m 3,7 C 4,3 C 4,8 km/h (1 Bft) 100,00 %
02.03.2017 06:34 4,3 C 96 % 1008,5 hPa 0,0 l/m 3,4 km/h (1 Bft) S 190 0 min 0,000 mm 0,0 UV-I 0 W/m 3,7 C 4,3 C 6,4 km/h (2 Bft) 93,62 %
02.03.2017 06:36 4,4 C 96 % 1008,5 hPa 0,0 l/m 4,7 km/h (1 Bft) S 190 0 min 0,000 mm 0,0 UV-I 0 W/m 3,8 C 4,4 C 6,4 km/h (2 Bft) 96,00 %
02.03.2017 06:38 4,4 C 96 % 1008,5 hPa 0,0 l/m 4,7 km/h (1 Bft) S 189 0 min 0,000 mm 0,0 UV-I 0 W/m 3,8 C 4,4 C 6,4 km/h (2 Bft) 93,62 %
02.03.2017 06:40 4,5 C 96 % 1008,5 hPa 0,2 l/m 5,2 km/h (1 Bft) S-SW 203 0 min 0,000 mm 0,0 UV-I 0 W/m 3,9 C 4,5 C 8,0 km/h (2 Bft) 100,00 %
02.03.2017 06:42 4,5 C 96 % 1008,5 hPa 0,0 l/m 5,6 km/h (1 Bft) S-SW 209 0 min 0,000 mm 0,0 UV-I 0 W/m 3,9 C 4,5 C 8,0 km/h (2 Bft) 97,44 %
02.03.2017 06:44 4,6 C 96 % 1008,5 hPa 0,0 l/m 5,9 km/h (2 Bft) S-SW 210 0 min 0,000 mm 0,0 UV-I 0 W/m 4,0 C 4,6 C 8,0 km/h (2 Bft) 100,00 %
02.03.2017 06:46 4,6 C 96 % 1008,5 hPa 0,0 l/m 6,3 km/h (2 Bft) S-SW 209 0 min 0,000 mm 0,0 UV-I 0 W/m 4,0 C 4,6 C 8,0 km/h (2 Bft) 96,00 %
02.03.2017 06:48 4,6 C 96 % 1008,5 hPa 0,0 l/m 6,6 km/h (2 Bft) S-SW 205 0 min 0,000 mm 0,0 UV-I 0 W/m 4,0 C 4,4 C 9,7 km/h (2 Bft) 97,44 %
02.03.2017 06:50 4,7 C 96 % 1008,6 hPa 0,0 l/m 7,0 km/h (2 Bft) SW 215 0 min 0,000 mm 0,0 UV-I 3 W/m 4,1 C 4,2 C 9,7 km/h (2 Bft) 97,73 %
02.03.2017 06:52 4,7 C 96 % 1008,6 hPa 0,2 l/m 8,8 km/h (2 Bft) S-SW 196 0 min 0,000 mm 0,0 UV-I 5 W/m 4,1 C 2,6 C 12,9 km/h (3 Bft) 96,00 %
02.03.2017 06:54 4,8 C 96 % 1008,6 hPa 0,0 l/m 9,3 km/h (2 Bft) S-SW 202 0 min 0,000 mm 0,0 UV-I 5 W/m 4,2 C 2,4 C 12,9 km/h (3 Bft) 100,00 %
02.03.2017 06:56 4,8 C 96 % 1008,7 hPa 0,0 l/m 9,3 km/h (2 Bft) S-SW 206 0 min 0,000 mm 0,0 UV-I 5 W/m 4,2 C 2,4 C 14,5 km/h (3 Bft) 96,43 %
02.03.2017 06:58 4,9 C 96 % 1008,7 hPa 0,0 l/m 7,6 km/h (2 Bft) SW 232 0 min 0,000 mm 0,0 UV-I 5 W/m 4,3 C 3,8 C 11,3 km/h (2 Bft) 97,37 %
02.03.2017 07:00 4,9 C 96 % 1008,7 hPa 0,0 l/m 8,2 km/h (2 Bft) SW 223 0 min 0,000 mm 0,0 UV-I 5 W/m 4,3 C 3,3 C 12,9 km/h (3 Bft) 97,73 %
02.03.2017 07:02 5,0 C 96 % 1008,7 hPa 0,0 l/m 9,3 km/h (2 Bft) S-SW 200 0 min 0,000 mm 0,0 UV-I 7 W/m 4,4 C 2,6 C 14,5 km/h (3 Bft) 96,61 %
02.03.2017 07:04 5,1 C 96 % 1008,7 hPa 0,2 l/m 10,5 km/h (2 Bft) S-SW 212 0 min 0,000 mm 0,0 UV-I 9 W/m 4,5 C 1,8 C 14,5 km/h (3 Bft) 95,74 %
02.03.2017 07:06 5,2 C 96 % 1008,7 hPa 0,0 l/m 8,6 km/h (2 Bft) SW 225 0 min 0,000 mm 0,0 UV-I 9 W/m 4,6 C 3,3 C 12,9 km/h (3 Bft) 91,49 %
02.03.2017 07:08 5,2 C 96 % 1008,7 hPa 0,0 l/m 8,5 km/h (2 Bft) S-SW 213 0 min 0,000 mm 0,0 UV-I 10 W/m 4,6 C 3,4 C 14,5 km/h (3 Bft) 93,62 %
02.03.2017 07:10 5,3 C 96 % 1008,8 hPa 0,0 l/m 9,1 km/h (2 Bft) W-SW 245 0 min 0,000 mm 0,0 UV-I 11 W/m 4,7 C 3,1 C 17,7 km/h (3 Bft) 95,12 %
02.03.2017 07:12 5,3 C 96 % 1008,8 hPa 0,0 l/m 10,1 km/h (2 Bft) W-SW 247 0 min 0,000 mm 0,0 UV-I 11 W/m 4,7 C 2,3 C 14,5 km/h (3 Bft) 98,11 %
02.03.2017 07:14 5,3 C 96 % 1008,8 hPa 0,0 l/m 6,7 km/h (2 Bft) SW 236 0 min 0,000 mm 0,0 UV-I 12 W/m 4,7 C 5,1 C 12,9 km/h (3 Bft) 89,47 %
02.03.2017 07:16 5,3 C 95 % 1008,8 hPa 0,0 l/m 8,0 km/h (2 Bft) SW 229 0 min 0,000 mm 0,0 UV-I 12 W/m 4,6 C 3,9 C 14,5 km/h (3 Bft) 94,00 %
02.03.2017 07:18 5,4 C 95 % 1008,8 hPa 0,2 l/m 7,4 km/h (2 Bft) SW 227 0 min 0,000 mm 0,0 UV-I 12 W/m 4,7 C 4,5 C 11,3 km/h (2 Bft) 93,62 %
02.03.2017 07:20 5,4 C 95 % 1008,8 hPa 0,0 l/m 9,7 km/h (2 Bft) SW 225 0 min 0,000 mm 0,0 UV-I 12 W/m 4,7 C 2,7 C 12,9 km/h (3 Bft) 91,49 %
02.03.2017 07:22 5,5 C 96 % 1008,9 hPa 0,0 l/m 8,1 km/h (2 Bft) W-SW 251 0 min 0,000 mm 0,0 UV-I 13 W/m 4,9 C 4,0 C 12,9 km/h (3 Bft) 94,00 %
02.03.2017 07:24 5,5 C 96 % 1008,8 hPa 0,0 l/m 9,2 km/h (2 Bft) SW 234 0 min 0,000 mm 0,0 UV-I 14 W/m 4,9 C 3,2 C 14,5 km/h (3 Bft) 92,31 %
02.03.2017 07:26 5,5 C 95 % 1008,8 hPa 0,0 l/m 11,9 km/h (2 Bft) SW 229 0 min 0,000 mm 0,0 UV-I 15 W/m 4,8 C 1,4 C 20,9 km/h (4 Bft) 88,46 %
02.03.2017 07:28 5,6 C 95 % 1008,9 hPa 0,0 l/m 12,2 km/h (2 Bft) SW 232 0 min 0,000 mm 0,0 UV-I 18 W/m 4,9 C 1,3 C 17,7 km/h (3 Bft) 97,44 %
02.03.2017 07:30 5,7 C 95 % 1008,9 hPa 0,0 l/m 15,8 km/h (3 Bft) SW 225 0 min 0,000 mm 0,0 UV-I 20 W/m 5,0 C -0,5 C 25,7 km/h (4 Bft) 93,22 %
02.03.2017 07:32 5,7 C 95 % 1008,9 hPa 0,0 l/m 15,0 km/h (3 Bft) W-SW 246 0 min 0,000 mm 0,0 UV-I 21 W/m 5,0 C -0,1 C 20,9 km/h (4 Bft) 100,00 %
02.03.2017 07:34 5,8 C 95 % 1008,9 hPa 0,0 l/m 15,8 km/h (3 Bft) SW 230 0 min 0,000 mm 0,0 UV-I 21 W/m 5,1 C -0,3 C 22,5 km/h (4 Bft) 98,39 %
02.03.2017 07:36 5,8 C 95 % 1009,0 hPa 0,0 l/m 14,7 km/h (3 Bft) SW 223 0 min 0,000 mm 0,0 UV-I 20 W/m 5,1 C 0,2 C 20,9 km/h (4 Bft) 98,11 %
02.03.2017 07:38 5,9 C 95 % 1008,9 hPa 0,0 l/m 12,4 km/h (3 Bft) W-SW 245 0 min 0,000 mm 0,0 UV-I 18 W/m 5,2 C 1,6 C 20,9 km/h (4 Bft) 92,68 %
02.03.2017 07:40 5,9 C 95 % 1008,9 hPa 0,0 l/m 13,8 km/h (3 Bft) S-SW 205 0 min 0,000 mm 0,0 UV-I 15 W/m 5,2 C 0,8 C 22,5 km/h (4 Bft) 96,00 %
02.03.2017 07:42 6,0 C 95 % 1008,9 hPa 0,0 l/m 9,5 km/h (2 Bft) W-SW 237 0 min 0,000 mm 0,0 UV-I 14 W/m 5,3 C 3,5 C 14,5 km/h (3 Bft) 97,73 %
02.03.2017 07:44 6,0 C 94 % 1008,9 hPa 0,2 l/m 10,8 km/h (2 Bft) SW 225 0 min 0,000 mm 0,0 UV-I 14 W/m 5,1 C 2,6 C 17,7 km/h (3 Bft) 97,56 %
02.03.2017 07:46 6,0 C 94 % 1008,8 hPa 0,0 l/m 10,5 km/h (2 Bft) S-SW 194 0 min 0,000 mm 0,0 UV-I 16 W/m 5,1 C 2,8 C 14,5 km/h (3 Bft) 98,00 %
02.03.2017 07:48 6,0 C 94 % 1008,9 hPa 0,0 l/m 9,7 km/h (2 Bft) S 187 0 min 0,000 mm 0,0 UV-I 19 W/m 5,1 C 3,4 C 16,1 km/h (3 Bft) 98,00 %
02.03.2017 07:50 6,0 C 94 % 1008,8 hPa 0,0 l/m 8,3 km/h (2 Bft) W-SW 244 0 min 0,000 mm 0,0 UV-I 21 W/m 5,1 C 4,4 C 12,9 km/h (3 Bft) 100,00 %
02.03.2017 07:52 6,0 C 94 % 1008,8 hPa 0,0 l/m 9,5 km/h (2 Bft) S-SW 202 0 min 0,000 mm 0,0 UV-I 27 W/m 5,1 C 3,5 C 14,5 km/h (3 Bft) 94,74 %
02.03.2017 07:54 6,1 C 94 % 1008,9 hPa 0,0 l/m 7,9 km/h (2 Bft) S-SW 202 0 min 0,000 mm 0,0 UV-I 33 W/m 5,2 C 4,8 C 12,9 km/h (3 Bft) 97,78 %
02.03.2017 07:56 6,1 C 95 % 1008,9 hPa 0,0 l/m 8,7 km/h (2 Bft) S-SW 202 0 min 0,000 mm 0,0 UV-I 42 W/m 5,4 C 4,2 C 14,5 km/h (3 Bft) 94,34 %
02.03.2017 07:58 6,2 C 95 % 1008,9 hPa 0,0 l/m 8,4 km/h (2 Bft) W-SW 250 0 min 0,000 mm 0,0 UV-I 44 W/m 5,5 C 4,6 C 12,9 km/h (3 Bft) 98,21 %
02.03.2017 08:00 6,2 C 95 % 1008,9 hPa 0,0 l/m 9,8 km/h (2 Bft) SW 215 0 min 0,000 mm 0,0 UV-I 45 W/m 5,5 C 3,5 C 14,5 km/h (3 Bft) 95,74 %
02.03.2017 08:02 6,3 C 94 % 1009,0 hPa 0,0 l/m 8,0 km/h (2 Bft) W-SW 243 0 min 0,000 mm 0,0 UV-I 42 W/m 5,4 C 5,0 C 11,3 km/h (2 Bft) 100,00 %
02.03.2017 08:04 6,3 C 94 % 1009,0 hPa 0,0 l/m 7,8 km/h (2 Bft) W-SW 246 0 min 0,000 mm 0,0 UV-I 40 W/m 5,4 C 5,1 C 12,9 km/h (3 Bft) 100,00 %
02.03.2017 08:06 6,3 C 94 % 1009,0 hPa 0,0 l/m 9,8 km/h (2 Bft) S-SW 211 0 min 0,000 mm 0,0 UV-I 44 W/m 5,4 C 3,6 C 14,5 km/h (3 Bft) 100,00 %
02.03.2017 08:08 6,4 C 94 % 1009,0 hPa 0,0 l/m 7,2 km/h (2 Bft) W-SW 242 0 min 0,000 mm 0,0 UV-I 49 W/m 5,5 C 5,7 C 11,3 km/h (2 Bft) 100,00 %
02.03.2017 08:10 6,5 C 94 % 1009,0 hPa 0,0 l/m 8,0 km/h (2 Bft) W-SW 238 0 min 0,000 mm 0,0 UV-I 55 W/m 5,6 C 5,2 C 14,5 km/h (3 Bft) 98,53 %
02.03.2017 08:12 6,6 C 94 % 1009,1 hPa 0,0 l/m 7,5 km/h (2 Bft) SW 219 0 min 0,000 mm 0,0 UV-I 63 W/m 5,7 C 5,7 C 9,7 km/h (2 Bft) 100,00 %
02.03.2017 08:14 6,6 C 94 % 1009,0 hPa 0,0 l/m 7,2 km/h (2 Bft) S-SW 206 0 min 0,000 mm 0,0 UV-I 66 W/m 5,7 C 5,9 C 11,3 km/h (2 Bft) 98,21 %
02.03.2017 08:16 6,7 C 94 % 1009,1 hPa 0,0 l/m 5,7 km/h (1 Bft) SW 225 0 min 0,000 mm 0,0 UV-I 62 W/m 5,8 C 6,7 C 11,3 km/h (2 Bft) 100,00 %
02.03.2017 08:18 6,8 C 94 % 1009,1 hPa 0,0 l/m 5,2 km/h (1 Bft) SW 231 0 min 0,000 mm 0,0 UV-I 60 W/m 5,9 C 6,8 C 9,7 km/h (2 Bft) 100,00 %
02.03.2017 08:20 6,8 C 94 % 1009,2 hPa 0,0 l/m 8,4 km/h (2 Bft) W-SW 238 0 min 0,000 mm 0,0 UV-I 60 W/m 5,9 C 5,2 C 14,5 km/h (3 Bft) 96,00 %
02.03.2017 08:22 6,9 C 94 % 1009,2 hPa 0,0 l/m 7,1 km/h (2 Bft) SW 229 0 min 0,000 mm 0,0 UV-I 60 W/m 6,0 C 6,3 C 9,7 km/h (2 Bft) 100,00 %
02.03.2017 08:24 6,9 C 94 % 1009,2 hPa 0,0 l/m 7,2 km/h (2 Bft) W-SW 243 0 min 0,000 mm 0,0 UV-I 57 W/m 6,0 C 6,2 C 12,9 km/h (3 Bft) 100,00 %
02.03.2017 08:26 7,0 C 94 % 1009,2 hPa 0,0 l/m 9,3 km/h (2 Bft) SW 233 0 min 0,000 mm 0,0 UV-I 59 W/m 6,1 C 4,8 C 14,5 km/h (3 Bft) 94,55 %
02.03.2017 08:28 7,1 C 94 % 1009,2 hPa 0,0 l/m 7,6 km/h (2 Bft) S-SW 213 0 min 0,000 mm 0,0 UV-I 57 W/m 6,2 C 6,1 C 11,3 km/h (2 Bft) 98,11 %
02.03.2017 08:30 7,1 C 93 % 1009,3 hPa 0,0 l/m 10,1 km/h (2 Bft) W-SW 251 0 min 0,000 mm 0,0 UV-I 56 W/m 6,0 C 4,3 C 14,5 km/h (3 Bft) 97,73 %
02.03.2017 08:32 7,1 C 93 % 1009,3 hPa 0,0 l/m 11,4 km/h (2 Bft) W-SW 248 0 min 0,000 mm 0,0 UV-I 55 W/m 6,0 C 3,5 C 17,7 km/h (3 Bft) 98,00 %
02.03.2017 08:34 7,2 C 93 % 1009,3 hPa 0,2 l/m 11,9 km/h (2 Bft) SW 227 0 min 0,000 mm 0,0 UV-I 56 W/m 6,1 C 3,3 C 16,1 km/h (3 Bft) 97,56 %
02.03.2017 08:36 7,2 C 93 % 1009,4 hPa 0,0 l/m 10,1 km/h (2 Bft) SW 232 0 min 0,000 mm 0,0 UV-I 55 W/m 6,1 C 4,4 C 17,7 km/h (3 Bft) 95,74 %
02.03.2017 08:38 7,2 C 93 % 1009,4 hPa 0,0 l/m 14,7 km/h (3 Bft) W-SW 252 0 min 0,000 mm 0,0 UV-I 55 W/m 6,1 C 1,9 C 20,9 km/h (4 Bft) 98,00 %
02.03.2017 08:40 7,3 C 93 % 1009,5 hPa 0,0 l/m 13,9 km/h (3 Bft) W-SW 257 0 min 0,000 mm 0,0 UV-I 56 W/m 6,2 C 2,4 C 20,9 km/h (4 Bft) 100,00 %
02.03.2017 08:42 7,3 C 92 % 1009,5 hPa 0,0 l/m 15,5 km/h (3 Bft) SW 228 0 min 0,000 mm 0,0 UV-I 54 W/m 6,1 C 1,6 C 24,1 km/h (4 Bft) 96,00 %
02.03.2017 08:44 7,3 C 92 % 1009,5 hPa 0,0 l/m 16,1 km/h (3 Bft) W 261 0 min 0,000 mm 0,0 UV-I 54 W/m 6,1 C 1,4 C 22,5 km/h (4 Bft) 100,00 %
02.03.2017 08:46 7,3 C 92 % 1009,5 hPa 0,0 l/m 16,1 km/h (3 Bft) W-SW 238 0 min 0,000 mm 0,0 UV-I 54 W/m 6,1 C 1,4 C 22,5 km/h (4 Bft) 100,00 %
02.03.2017 08:48 7,3 C 92 % 1009,5 hPa 0,0 l/m 15,9 km/h (3 Bft) W-SW 246 0 min 0,000 mm 0,0 UV-I 54 W/m 6,1 C 1,5 C 22,5 km/h (4 Bft) 98,00 %
02.03.2017 08:50 7,3 C 92 % 1009,5 hPa 0,0 l/m 16,4 km/h (3 Bft) SW 229 0 min 0,000 mm 0,0 UV-I 63 W/m 6,1 C 1,2 C 24,1 km/h (4 Bft) 97,87 %
02.03.2017 08:52 7,3 C 92 % 1009,5 hPa 0,0 l/m 13,5 km/h (3 Bft) W-SW 241 0 min 0,000 mm 0,0 UV-I 82 W/m 6,1 C 2,6 C 22,5 km/h (4 Bft) 100,00 %
02.03.2017 08:54 7,3 C 93 % 1009,6 hPa 0,0 l/m 15,4 km/h (3 Bft) W-SW 242 0 min 0,000 mm 0,0 UV-I 97 W/m 6,2 C 1,7 C 19,3 km/h (3 Bft) 100,00 %
02.03.2017 08:56 7,4 C 92 % 1009,6 hPa 0,0 l/m 16,4 km/h (3 Bft) W-SW 246 0 min 0,000 mm 0,0 UV-I 109 W/m 6,2 C 1,4 C 22,5 km/h (4 Bft) 100,00 %
02.03.2017 08:58 7,4 C 92 % 1009,5 hPa 0,0 l/m 15,1 km/h (3 Bft) W-SW 252 0 min 0,000 mm 0,0 UV-I 115 W/m 6,2 C 1,9 C 20,9 km/h (4 Bft) 98,00 %
02.03.2017 09:00 7,4 C 92 % 1009,6 hPa 0,0 l/m 16,6 km/h (3 Bft) W-SW 243 0 min 0,025 mm 0,0 UV-I 119 W/m 6,2 C 1,3 C 24,1 km/h (4 Bft) 98,21 %
02.03.2017 09:02 7,4 C 93 % 1009,7 hPa 0,2 l/m 14,5 km/h (3 Bft) SW 235 0 min 0,000 mm 0,0 UV-I 125 W/m 6,3 C 2,2 C 19,3 km/h (3 Bft) 100,00 %
02.03.2017 09:04 7,5 C 93 % 1009,6 hPa 0,0 l/m 16,3 km/h (3 Bft) S-SW 208 0 min 0,000 mm 0,0 UV-I 135 W/m 6,4 C 1,5 C 24,1 km/h (4 Bft) 94,74 %
02.03.2017 09:06 7,5 C 93 % 1009,6 hPa 0,0 l/m 14,8 km/h (3 Bft) W-SW 246 0 min 0,000 mm 0,0 UV-I 136 W/m 6,4 C 2,2 C 20,9 km/h (4 Bft) 100,00 %
02.03.2017 09:08 7,5 C 92 % 1009,6 hPa 0,0 l/m 14,9 km/h (3 Bft) SW 224 0 min 0,000 mm 0,4 UV-I 148 W/m 6,3 C 2,2 C 20,9 km/h (4 Bft) 95,74 %
02.03.2017 09:10 7,6 C 92 % 1009,6 hPa 0,0 l/m 14,4 km/h (3 Bft) W-SW 242 0 min 0,000 mm 0,5 UV-I 155 W/m 6,4 C 2,5 C 19,3 km/h (3 Bft) 90,57 %
02.03.2017 09:12 7,6 C 93 % 1009,6 hPa 0,0 l/m 15,3 km/h (3 Bft) W-SW 244 0 min 0,000 mm 0,5 UV-I 141 W/m 6,5 C 2,1 C 24,1 km/h (4 Bft) 100,00 %
02.03.2017 09:14 7,6 C 92 % 1009,5 hPa 0,0 l/m 16,1 km/h (3 Bft) S-SW 212 0 min 0,000 mm 0,5 UV-I 152 W/m 6,4 C 1,7 C 22,5 km/h (4 Bft) 92,00 %
02.03.2017 09:16 7,7 C 92 % 1009,5 hPa 0,0 l/m 16,3 km/h (3 Bft) W-SW 246 0 min 0,000 mm 0,5 UV-I 161 W/m 6,5 C 1,8 C 25,7 km/h (4 Bft) 96,00 %
02.03.2017 09:18 7,7 C 92 % 1009,5 hPa 0,0 l/m 18,6 km/h (3 Bft) W-SW 252 0 min 0,000 mm 0,5 UV-I 139 W/m 6,5 C 0,8 C 24,1 km/h (4 Bft) 95,74 %
02.03.2017 09:20 7,7 C 92 % 1009,5 hPa 0,0 l/m 18,4 km/h (3 Bft) SW 217 0 min 0,000 mm 0,6 UV-I 131 W/m 6,5 C 0,9 C 27,4 km/h (4 Bft) 98,00 %
02.03.2017 09:22 7,8 C 92 % 1009,5 hPa 0,0 l/m 19,2 km/h (3 Bft) SW 230 0 min 0,000 mm 0,6 UV-I 172 W/m 6,6 C 0,7 C 29,0 km/h (5 Bft) 94,87 %
02.03.2017 09:24 7,8 C 92 % 1009,5 hPa 0,0 l/m 16,4 km/h (3 Bft) SW 235 0 min 0,000 mm 0,6 UV-I 175 W/m 6,6 C 1,8 C 25,7 km/h (4 Bft) 98,00 %
02.03.2017 09:26 7,9 C 92 % 1009,7 hPa 0,0 l/m 18,1 km/h (3 Bft) W-SW 252 0 min 0,000 mm 0,7 UV-I 182 W/m 6,7 C 1,3 C 27,4 km/h (4 Bft) 94,23 %
02.03.2017 09:28 8,0 C 92 % 1009,6 hPa 0,0 l/m 17,8 km/h (3 Bft) SW 236 0 min 0,000 mm 0,6 UV-I 190 W/m 6,8 C 1,5 C 25,7 km/h (4 Bft) 97,22 %
02.03.2017 09:30 8,1 C 91 % 1009,6 hPa 0,0 l/m 18,3 km/h (3 Bft) W-SW 256 0 min 0,000 mm 0,7 UV-I 194 W/m 6,7 C 1,5 C 27,4 km/h (4 Bft) 92,45 %
02.03.2017 09:32 8,1 C 91 % 1009,6 hPa 0,0 l/m 18,1 km/h (3 Bft) SW 227 0 min 0,000 mm 0,7 UV-I 146 W/m 6,7 C 1,5 C 29,0 km/h (5 Bft) 97,87 %
02.03.2017 09:34 8,2 C 91 % 1009,8 hPa 0,0 l/m 16,5 km/h (3 Bft) S-SW 208 0 min 0,000 mm 0,8 UV-I 211 W/m 6,8 C 2,3 C 27,4 km/h (4 Bft) 95,00 %
02.03.2017 09:36 8,3 C 90 % 1009,7 hPa 0,0 l/m 19,5 km/h (3 Bft) SW 229 0 min 0,000 mm 0,8 UV-I 213 W/m 6,8 C 1,3 C 25,7 km/h (4 Bft) 96,61 %
02.03.2017 09:38 8,4 C 90 % 1009,9 hPa 0,0 l/m 19,0 km/h (3 Bft) W 259 2 min 0,000 mm 0,9 UV-I 401 W/m 6,9 C 1,6 C 37,0 km/h (5 Bft) 95,45 %
02.03.2017 09:40 8,6 C 89 % 1009,8 hPa 0,0 l/m 22,0 km/h (4 Bft) W-SW 250 2 min 0,000 mm 1,0 UV-I 404 W/m 6,9 C 0,8 C 32,2 km/h (5 Bft) 97,14 %
02.03.2017 09:42 8,7 C 89 % 1009,6 hPa 0,0 l/m 21,7 km/h (4 Bft) SW 217 2 min 0,000 mm 0,9 UV-I 369 W/m 7,0 C 1,0 C 32,2 km/h (5 Bft) 98,21 %
02.03.2017 09:44 8,8 C 89 % 1009,7 hPa 0,0 l/m 18,6 km/h (3 Bft) S 188 2 min 0,000 mm 1,0 UV-I 409 W/m 7,1 C 2,2 C 25,7 km/h (4 Bft) 97,73 %
02.03.2017 09:46 8,9 C 88 % 1009,8 hPa 0,0 l/m 19,4 km/h (3 Bft) W 262 2 min 0,000 mm 1,1 UV-I 426 W/m 7,0 C 2,1 C 30,6 km/h (5 Bft) 100,00 %
02.03.2017 09:48 9,1 C 88 % 1009,8 hPa 0,0 l/m 15,4 km/h (3 Bft) W 264 2 min 0,000 mm 1,1 UV-I 431 W/m 7,2 C 3,9 C 32,2 km/h (5 Bft) 100,00 %
02.03.2017 09:50 9,2 C 87 % 1009,8 hPa 0,0 l/m 20,4 km/h (4 Bft) W 261 2 min 0,000 mm 1,1 UV-I 430 W/m 7,2 C 2,1 C 29,0 km/h (5 Bft) 92,11 %
02.03.2017 09:52 9,2 C 87 % 1009,9 hPa 0,0 l/m 19,3 km/h (3 Bft) W-SW 246 2 min 0,000 mm 1,1 UV-I 429 W/m 7,2 C 2,5 C 29,0 km/h (5 Bft) 94,00 %
02.03.2017 09:54 9,3 C 87 % 1009,9 hPa 0,0 l/m 18,7 km/h (3 Bft) W-SW 244 2 min 0,000 mm 1,1 UV-I 426 W/m 7,2 C 2,8 C 29,0 km/h (5 Bft) 100,00 %
02.03.2017 09:56 9,4 C 87 % 1009,8 hPa 0,0 l/m 18,8 km/h (3 Bft) SW 229 2 min 0,000 mm 1,2 UV-I 453 W/m 7,3 C 2,9 C 38,6 km/h (5 Bft) 96,23 %
02.03.2017 09:58 9,5 C 86 % 1009,8 hPa 0,0 l/m 19,1 km/h (3 Bft) W-SW 240 2 min 0,000 mm 1,2 UV-I 468 W/m 7,3 C 2,9 C 30,6 km/h (5 Bft) 97,56 %
02.03.2017 10:00 9,6 C 86 % 1009,8 hPa 0,0 l/m 21,3 km/h (4 Bft) W-SW 240 2 min 0,127 mm 1,2 UV-I 518 W/m 7,4 C 2,4 C 30,6 km/h (5 Bft) 98,11 %
02.03.2017 10:02 9,8 C 86 % 1009,8 hPa 0,0 l/m 21,7 km/h (4 Bft) SW 225 2 min 0,000 mm 1,2 UV-I 554 W/m 7,6 C 2,5 C 38,6 km/h (5 Bft) 97,87 %
02.03.2017 10:04 9,8 C 85 % 1009,8 hPa 0,0 l/m 23,0 km/h (4 Bft) W 261 2 min 0,000 mm 1,0 UV-I 484 W/m 7,4 C 2,1 C 35,4 km/h (5 Bft) 100,00 %
02.03.2017 10:06 9,8 C 84 % 1009,8 hPa 0,0 l/m 23,8 km/h (4 Bft) SW 232 2 min 0,000 mm 1,0 UV-I 294 W/m 7,2 C 1,9 C 37,0 km/h (5 Bft) 93,75 %
02.03.2017 10:08 9,8 C 84 % 1009,8 hPa 0,0 l/m 20,5 km/h (4 Bft) W-SW 246 2 min 0,000 mm 1,1 UV-I 367 W/m 7,2 C 2,9 C 37,0 km/h (5 Bft) 97,87 %
02.03.2017 10:10 9,8 C 84 % 1009,8 hPa 0,0 l/m 20,1 km/h (4 Bft) W-SW 250 2 min 0,000 mm 1,0 UV-I 326 W/m 7,2 C 3,0 C 27,4 km/h (4 Bft) 95,74 %
02.03.2017 10:12 9,8 C 84 % 1009,7 hPa 0,0 l/m 26,5 km/h (4 Bft) SW 222 2 min 0,000 mm 1,0 UV-I 334 W/m 7,2 C 1,2 C 37,0 km/h (5 Bft) 97,87 %
02.03.2017 10:14 9,8 C 84 % 1009,9 hPa 0,0 l/m 20,4 km/h (4 Bft) W-SW 248 2 min 0,000 mm 0,9 UV-I 275 W/m 7,2 C 2,9 C 29,0 km/h (5 Bft) 97,73 %
02.03.2017 10:16 9,8 C 83 % 1009,8 hPa 0,0 l/m 28,8 km/h (4 Bft) SW 236 0 min 0,000 mm 1,0 UV-I 255 W/m 7,1 C 0,6 C 45,1 km/h (6 Bft) 94,00 %
02.03.2017 10:18 9,8 C 83 % 1009,8 hPa 0,0 l/m 20,0 km/h (4 Bft) W-SW 248 2 min 0,000 mm 1,0 UV-I 286 W/m 7,1 C 3,0 C 32,2 km/h (5 Bft) 100,00 %
02.03.2017 10:20 9,9 C 83 % 1009,8 hPa 0,0 l/m 25,0 km/h (4 Bft) W-SW 242 2 min 0,000 mm 1,1 UV-I 309 W/m 7,2 C 1,7 C 33,8 km/h (5 Bft) 94,74 %
02.03.2017 10:22 10,0 C 84 % 1009,9 hPa 0,0 l/m 20,4 km/h (4 Bft) SW 234 2 min 0,000 mm 1,1 UV-I 358 W/m 7,4 C 3,2 C 29,0 km/h (5 Bft) 98,11 %
02.03.2017 10:24 10,1 C 83 % 1009,9 hPa 0,0 l/m 22,5 km/h (4 Bft) SW 236 2 min 0,000 mm 1,1 UV-I 343 W/m 7,3 C 2,7 C 33,8 km/h (5 Bft) 100,00 %
02.03.2017 10:26 10,1 C 83 % 1009,9 hPa 0,0 l/m 22,1 km/h (4 Bft) SW 227 0 min 0,000 mm 0,9 UV-I 264 W/m 7,3 C 2,8 C 35,4 km/h (5 Bft) 96,23 %
02.03.2017 10:28 10,1 C 82 % 1010,0 hPa 0,0 l/m 20,6 km/h (4 Bft) SW 227 0 min 0,000 mm 0,7 UV-I 174 W/m 7,2 C 3,2 C 25,7 km/h (4 Bft) 95,12 %
02.03.2017 10:30 10,0 C 83 % 1009,9 hPa 0,0 l/m 21,7 km/h (4 Bft) SW 217 0 min 0,000 mm 0,6 UV-I 143 W/m 7,2 C 2,8 C 33,8 km/h (5 Bft) 94,00 %
02.03.2017 10:32 9,9 C 82 % 1010,0 hPa 0,0 l/m 23,2 km/h (4 Bft) SW 215 0 min 0,000 mm 0,6 UV-I 137 W/m 7,0 C 2,2 C 37,0 km/h (5 Bft) 96,00 %
02.03.2017 10:34 9,8 C 82 % 1010,0 hPa 0,0 l/m 25,4 km/h (4 Bft) SW 227 0 min 0,000 mm 0,6 UV-I 133 W/m 6,9 C 1,5 C 35,4 km/h (5 Bft) 100,00 %
02.03.2017 10:36 9,8 C 83 % 1010,1 hPa 0,0 l/m 15,1 km/h (3 Bft) W 264 0 min 0,000 mm 0,6 UV-I 122 W/m 7,1 C 4,8 C 22,5 km/h (4 Bft) 98,21 %
02.03.2017 10:38 9,7 C 82 % 1010,1 hPa 0,0 l/m 22,4 km/h (4 Bft) W-SW 254 0 min 0,000 mm 0,6 UV-I 133 W/m 6,8 C 2,2 C 35,4 km/h (5 Bft) 95,12 %
02.03.2017 10:40 9,7 C 82 % 1010,1 hPa 0,0 l/m 21,6 km/h (4 Bft) W-SW 243 0 min 0,000 mm 0,6 UV-I 165 W/m 6,8 C 2,4 C 32,2 km/h (5 Bft) 98,00 %
02.03.2017 10:42 9,7 C 82 % 1010,3 hPa 0,0 l/m 22,3 km/h (4 Bft) SW 232 0 min 0,000 mm 0,3 UV-I 132 W/m 6,8 C 2,2 C 38,6 km/h (5 Bft) 100,00 %
02.03.2017 10:44 9,7 C 82 % 1010,4 hPa 0,0 l/m 23,2 km/h (4 Bft) W 259 0 min 0,000 mm 0,0 UV-I 94 W/m 6,8 C 1,9 C 40,2 km/h (6 Bft) 98,39 %
02.03.2017 10:46 9,6 C 82 % 1010,5 hPa 0,0 l/m 20,5 km/h (4 Bft) W 260 0 min 0,000 mm 0,0 UV-I 84 W/m 6,7 C 2,6 C 35,4 km/h (5 Bft) 95,74 %
02.03.2017 10:48 9,6 C 82 % 1010,6 hPa 0,0 l/m 18,3 km/h (3 Bft) W 261 0 min 0,000 mm 0,0 UV-I 68 W/m 6,7 C 3,4 C 27,4 km/h (4 Bft) 100,00 %
02.03.2017 10:50 9,5 C 83 % 1010,6 hPa 0,0 l/m 15,0 km/h (3 Bft) W 267 0 min 0,000 mm 0,0 UV-I 70 W/m 6,8 C 4,5 C 24,1 km/h (4 Bft) 100,00 %
02.03.2017 10:52 9,4 C 84 % 1010,8 hPa 0,0 l/m 11,9 km/h (2 Bft) W 261 0 min 0,000 mm 0,0 UV-I 74 W/m 6,8 C 5,9 C 24,1 km/h (4 Bft) 100,00 %
02.03.2017 10:54 9,3 C 85 % 1010,7 hPa 0,0 l/m 18,9 km/h (3 Bft) W 274 0 min 0,000 mm 0,3 UV-I 104 W/m 6,9 C 2,8 C 35,4 km/h (5 Bft) 94,00 %
02.03.2017 10:56 9,1 C 85 % 1010,6 hPa 0,0 l/m 21,7 km/h (4 Bft) W-NW 285 0 min 0,000 mm 0,5 UV-I 125 W/m 6,7 C 1,6 C 30,6 km/h (5 Bft) 96,00 %
02.03.2017 10:58 8,9 C 84 % 1010,8 hPa 0,0 l/m 26,6 km/h (4 Bft) W-SW 257 0 min 0,000 mm 0,5 UV-I 117 W/m 6,3 C -0,1 C 49,9 km/h (6 Bft) 98,11 %
02.03.2017 11:00 8,8 C 85 % 1010,8 hPa 0,0 l/m 20,5 km/h (4 Bft) W-SW 257 0 min 0,127 mm 0,6 UV-I 125 W/m 6,4 C 1,6 C 29,0 km/h (5 Bft) 94,29 %
02.03.2017 11:02 8,7 C 86 % 1010,9 hPa 0,0 l/m 25,5 km/h (4 Bft) SW 217 0 min 0,000 mm 0,9 UV-I 177 W/m 6,5 C -0,1 C 37,0 km/h (5 Bft) 93,62 %
02.03.2017 11:04 8,6 C 86 % 1010,9 hPa 0,0 l/m 25,7 km/h (4 Bft) W-SW 242 0 min 0,000 mm 1,0 UV-I 200 W/m 6,4 C -0,3 C 43,5 km/h (6 Bft) 93,62 %
02.03.2017 11:06 8,6 C 87 % 1011,0 hPa 0,0 l/m 22,0 km/h (4 Bft) W-SW 258 0 min 0,000 mm 0,9 UV-I 203 W/m 6,6 C 0,8 C 35,4 km/h (5 Bft) 97,56 %
02.03.2017 11:08 8,6 C 85 % 1011,0 hPa 0,0 l/m 23,4 km/h (4 Bft) SW 231 0 min 0,000 mm 0,9 UV-I 197 W/m 6,2 C 0,4 C 46,7 km/h (6 Bft) 96,43 %
02.03.2017 11:10 8,7 C 83 % 1010,9 hPa 0,0 l/m 21,9 km/h (4 Bft) W 279 0 min 0,000 mm 0,9 UV-I 207 W/m 6,0 C 1,0 C 33,8 km/h (5 Bft) 92,59 %
02.03.2017 11:12 8,7 C 81 % 1010,9 hPa 0,0 l/m 29,3 km/h (5 Bft) W-SW 258 0 min 0,000 mm 0,9 UV-I 201 W/m 5,6 C -1,0 C 43,5 km/h (6 Bft) 94,29 %
02.03.2017 11:14 8,7 C 81 % 1011,0 hPa 0,0 l/m 22,0 km/h (4 Bft) W 259 0 min 0,000 mm 0,9 UV-I 203 W/m 5,6 C 1,0 C 32,2 km/h (5 Bft) 94,74 %
02.03.2017 11:16 8,7 C 80 % 1011,0 hPa 0,0 l/m 19,7 km/h (3 Bft) SW 229 0 min 0,000 mm 0,9 UV-I 206 W/m 5,4 C 1,7 C 30,6 km/h (5 Bft) 100,00 %
02.03.2017 11:18 8,7 C 79 % 1010,9 hPa 0,0 l/m 19,9 km/h (4 Bft) W-SW 243 0 min 0,000 mm 1,1 UV-I 242 W/m 5,3 C 1,6 C 33,8 km/h (5 Bft) 88,52 %
02.03.2017 11:20 8,7 C 79 % 1011,1 hPa 0,0 l/m 24,2 km/h (4 Bft) W 263 0 min 0,000 mm 1,0 UV-I 231 W/m 5,3 C 0,3 C 38,6 km/h (5 Bft) 93,62 %
02.03.2017 11:22 8,7 C 79 % 1011,1 hPa 0,0 l/m 25,6 km/h (4 Bft) SW 232 0 min 0,000 mm 0,9 UV-I 215 W/m 5,3 C -0,1 C 41,8 km/h (6 Bft) 93,75 %
02.03.2017 11:24 8,7 C 79 % 1011,2 hPa 0,0 l/m 19,6 km/h (3 Bft) W-NW 290 0 min 0,000 mm 0,9 UV-I 217 W/m 5,3 C 1,7 C 41,8 km/h (6 Bft) 95,74 %
02.03.2017 11:26 8,7 C 80 % 1011,3 hPa 0,0 l/m 20,4 km/h (4 Bft) SW 230 0 min 0,000 mm 1,0 UV-I 236 W/m 5,4 C 1,5 C 29,0 km/h (5 Bft) 97,87 %
02.03.2017 11:29 8,7 C 79 % 1011,3 hPa 0,0 l/m 21,4 km/h (4 Bft) W-SW 246 0 min 0,000 mm 1,0 UV-I 238 W/m 5,3 C 1,1 C 35,4 km/h (5 Bft) 95,77 %
02.03.2017 11:30 8,7 C 80 % 1011,3 hPa 0,0 l/m 22,1 km/h (4 Bft) W 263 0 min 0,000 mm 1,0 UV-I 223 W/m 5,4 C 0,9 C 32,2 km/h (5 Bft) 95,83 %
02.03.2017 11:32 8,7 C 80 % 1011,3 hPa 0,0 l/m 20,6 km/h (4 Bft) W-SW 246 0 min 0,000 mm 0,9 UV-I 215 W/m 5,4 C 1,4 C 30,6 km/h (5 Bft) 97,87 %
02.03.2017 11:34 8,8 C 79 % 1011,4 hPa 0,0 l/m 18,7 km/h (3 Bft) W 269 0 min 0,000 mm 1,0 UV-I 214 W/m 5,4 C 2,2 C 30,6 km/h (5 Bft) 97,87 %
02.03.2017 11:36 8,8 C 79 % 1011,4 hPa 0,0 l/m 21,6 km/h (4 Bft) W 264 0 min 0,000 mm 1,1 UV-I 240 W/m 5,4 C 1,2 C 30,6 km/h (5 Bft) 89,36 %
02.03.2017 11:38 8,8 C 78 % 1011,4 hPa 0,0 l/m 18,3 km/h (3 Bft) W-SW 251 2 min 0,000 mm 1,3 UV-I 351 W/m 5,2 C 2,3 C 24,1 km/h (4 Bft) 96,00 %
02.03.2017 11:40 8,9 C 78 % 1011,4 hPa 0,0 l/m 23,0 km/h (4 Bft) W-SW 249 2 min 0,000 mm 1,5 UV-I 372 W/m 5,3 C 0,9 C 33,8 km/h (5 Bft) 97,56 %
02.03.2017 11:42 9,1 C 78 % 1011,5 hPa 0,0 l/m 18,5 km/h (3 Bft) W-NW 283 2 min 0,000 mm 1,9 UV-I 463 W/m 5,5 C 2,7 C 25,7 km/h (4 Bft) 100,00 %
02.03.2017 11:44 9,3 C 78 % 1011,5 hPa 0,0 l/m 18,1 km/h (3 Bft) W-SW 238 2 min 0,000 mm 1,5 UV-I 356 W/m 5,7 C 3,0 C 30,6 km/h (5 Bft) 100,00 %
02.03.2017 11:46 9,3 C 77 % 1011,6 hPa 0,0 l/m 19,9 km/h (4 Bft) W-SW 239 2 min 0,000 mm 1,5 UV-I 353 W/m 5,5 C 2,4 C 29,0 km/h (5 Bft) 100,00 %
02.03.2017 11:48 9,4 C 77 % 1011,7 hPa 0,0 l/m 20,6 km/h (4 Bft) W 270 2 min 0,000 mm 1,4 UV-I 351 W/m 5,6 C 2,3 C 30,6 km/h (5 Bft) 97,87 %
02.03.2017 11:50 9,4 C 77 % 1011,8 hPa 0,0 l/m 18,3 km/h (3 Bft) W-SW 250 0 min 0,000 mm 1,2 UV-I 307 W/m 5,6 C 3,1 C 38,6 km/h (5 Bft) 94,74 %
02.03.2017 11:52 9,4 C 75 % 1011,6 hPa 0,0 l/m 19,6 km/h (3 Bft) W-NW 295 0 min 0,000 mm 1,0 UV-I 255 W/m 5,2 C 2,6 C 30,6 km/h (5 Bft) 96,43 %
02.03.2017 11:54 9,4 C 75 % 1011,7 hPa 0,0 l/m 25,7 km/h (4 Bft) W 280 2 min 0,000 mm 1,3 UV-I 357 W/m 5,2 C 0,8 C 40,2 km/h (6 Bft) 100,00 %
02.03.2017 11:56 9,4 C 73 % 1011,8 hPa 0,0 l/m 25,8 km/h (4 Bft) W-SW 248 2 min 0,000 mm 1,6 UV-I 509 W/m 4,8 C 0,8 C 45,1 km/h (6 Bft) 97,87 %
02.03.2017 11:58 9,4 C 72 % 1011,7 hPa 0,0 l/m 22,7 km/h (4 Bft) W 261 2 min 0,000 mm 1,6 UV-I 468 W/m 4,6 C 1,7 C 38,6 km/h (5 Bft) 100,00 %
02.03.2017 12:00 9,4 C 72 % 1011,8 hPa 0,0 l/m 20,2 km/h (4 Bft) W-NW 289 0 min 0,178 mm 1,2 UV-I 282 W/m 4,6 C 2,4 C 32,2 km/h (5 Bft) 98,18 %
02.03.2017 12:02 9,4 C 70 % 1011,9 hPa 0,0 l/m 22,9 km/h (4 Bft) W-SW 247 0 min 0,000 mm 1,1 UV-I 249 W/m 4,2 C 1,6 C 35,4 km/h (5 Bft) 97,87 %
02.03.2017 12:05 9,3 C 71 % 1012,0 hPa 0,0 l/m 19,9 km/h (4 Bft) W-SW 247 0 min 0,000 mm 1,2 UV-I 285 W/m 4,3 C 2,4 C 35,4 km/h (5 Bft) 95,38 %
02.03.2017 12:06 9,3 C 71 % 1012,0 hPa 0,0 l/m 16,3 km/h (3 Bft) W-SW 258 1 min 0,000 mm 1,3 UV-I 320 W/m 4,3 C 3,7 C 22,5 km/h (4 Bft) 100,00 %
02.03.2017 12:08 9,3 C 71 % 1012,1 hPa 0,0 l/m 23,7 km/h (4 Bft) W-SW 244 2 min 0,000 mm 1,4 UV-I 326 W/m 4,3 C 1,2 C 37,0 km/h (5 Bft) 97,37 %
02.03.2017 12:10 9,4 C 71 % 1012,1 hPa 0,0 l/m 19,9 km/h (4 Bft) SW 236 2 min 0,000 mm 1,6 UV-I 398 W/m 4,4 C 2,5 C 30,6 km/h (5 Bft) 94,34 %
02.03.2017 12:12 9,4 C 72 % 1012,1 hPa 0,0 l/m 24,8 km/h (4 Bft) W 265 2 min 0,000 mm 1,5 UV-I 374 W/m 4,6 C 1,1 C 43,5 km/h (6 Bft) 93,62 %
02.03.2017 12:14 9,4 C 71 % 1012,1 hPa 0,0 l/m 22,1 km/h (4 Bft) SW 222 2 min 0,000 mm 1,5 UV-I 359 W/m 4,4 C 1,8 C 33,8 km/h (5 Bft) 100,00 %
02.03.2017 12:16 9,4 C 72 % 1012,0 hPa 0,0 l/m 21,2 km/h (4 Bft) W-SW 238 2 min 0,000 mm 1,4 UV-I 332 W/m 4,6 C 2,1 C 29,0 km/h (5 Bft) 91,49 %
02.03.2017 12:18 9,4 C 69 % 1012,2 hPa 0,0 l/m 24,8 km/h (4 Bft) W 264 0 min 0,000 mm 1,3 UV-I 308 W/m 4,0 C 1,1 C 37,0 km/h (5 Bft) 100,00 %
02.03.2017 12:20 9,4 C 69 % 1012,2 hPa 0,0 l/m 24,8 km/h (4 Bft) W-SW 252 0 min 0,000 mm 1,3 UV-I 310 W/m 4,0 C 1,1 C 32,2 km/h (5 Bft) 97,87 %
02.03.2017 12:22 9,3 C 68 % 1012,2 hPa 0,0 l/m 26,8 km/h (4 Bft) W 267 2 min 0,000 mm 1,4 UV-I 324 W/m 3,7 C 0,4 C 46,7 km/h (6 Bft) 93,62 %
02.03.2017 12:24 9,3 C 67 % 1012,2 hPa 0,0 l/m 28,9 km/h (5 Bft) W-SW 244 2 min 0,000 mm 1,5 UV-I 326 W/m 3,5 C -0,1 C 49,9 km/h (6 Bft) 95,74 %
02.03.2017 12:26 9,3 C 67 % 1012,3 hPa 0,0 l/m 26,8 km/h (4 Bft) SW 229 2 min 0,000 mm 1,6 UV-I 369 W/m 3,5 C 0,4 C 40,2 km/h (6 Bft) 97,87 %
02.03.2017 12:28 9,3 C 66 % 1012,3 hPa 0,0 l/m 23,8 km/h (4 Bft) SW 235 0 min 0,000 mm 1,3 UV-I 303 W/m 3,3 C 1,2 C 43,5 km/h (6 Bft) 93,62 %
02.03.2017 12:30 9,3 C 65 % 1012,4 hPa 0,0 l/m 28,9 km/h (5 Bft) W 267 0 min 0,000 mm 1,3 UV-I 310 W/m 3,1 C -0,1 C 41,8 km/h (6 Bft) 100,00 %
02.03.2017 12:32 9,2 C 65 % 1012,5 hPa 0,0 l/m 23,7 km/h (4 Bft) W-SW 240 2 min 0,000 mm 1,3 UV-I 318 W/m 3,0 C 1,1 C 33,8 km/h (5 Bft) 97,37 %
02.03.2017 12:34 9,2 C 65 % 1012,6 hPa 0,0 l/m 23,9 km/h (4 Bft) W 275 2 min 0,000 mm 1,3 UV-I 323 W/m 3,0 C 1,1 C 41,8 km/h (6 Bft) 95,24 %
02.03.2017 12:36 9,2 C 63 % 1012,7 hPa 0,0 l/m 29,3 km/h (5 Bft) W-SW 246 2 min 0,000 mm 1,4 UV-I 330 W/m 2,5 C -0,3 C 40,2 km/h (6 Bft) 95,74 %
02.03.2017 12:38 9,3 C 64 % 1012,7 hPa 0,0 l/m 24,2 km/h (4 Bft) W-SW 256 2 min 0,000 mm 1,4 UV-I 369 W/m 2,8 C 1,1 C 40,2 km/h (6 Bft) 100,00 %
02.03.2017 12:40 9,3 C 63 % 1012,6 hPa 0,0 l/m 25,9 km/h (4 Bft) W 265 2 min 0,000 mm 1,4 UV-I 335 W/m 2,6 C 0,6 C 35,4 km/h (5 Bft) 97,56 %
02.03.2017 12:42 9,3 C 62 % 1012,5 hPa 0,0 l/m 28,0 km/h (4 Bft) W 267 2 min 0,000 mm 1,4 UV-I 353 W/m 2,4 C 0,1 C 38,6 km/h (5 Bft) 100,00 %
02.03.2017 12:44 9,3 C 63 % 1012,6 hPa 0,0 l/m 21,0 km/h (4 Bft) W 269 2 min 0,000 mm 1,5 UV-I 405 W/m 2,6 C 2,1 C 37,0 km/h (5 Bft) 95,74 %
02.03.2017 12:46 9,4 C 63 % 1012,6 hPa 0,0 l/m 24,1 km/h (4 Bft) W 260 2 min 0,000 mm 1,4 UV-I 361 W/m 2,7 C 1,3 C 41,8 km/h (6 Bft) 94,00 %
02.03.2017 12:48 9,4 C 61 % 1012,7 hPa 0,0 l/m 30,9 km/h (5 Bft) W 267 2 min 0,000 mm 1,3 UV-I 360 W/m 2,3 C -0,4 C 49,9 km/h (6 Bft) 100,00 %
02.03.2017 12:50 9,3 C 62 % 1012,7 hPa 0,0 l/m 31,5 km/h (5 Bft) SW 234 2 min 0,000 mm 1,3 UV-I 351 W/m 2,4 C -0,6 C 45,1 km/h (6 Bft) 95,12 %
02.03.2017 12:52 9,3 C 62 % 1012,8 hPa 0,0 l/m 27,0 km/h (4 Bft) W-SW 245 2 min 0,000 mm 1,4 UV-I 357 W/m 2,4 C 0,4 C 49,9 km/h (6 Bft) 100,00 %
02.03.2017 12:54 9,3 C 62 % 1012,8 hPa 0,0 l/m 30,0 km/h (5 Bft) SW 232 2 min 0,000 mm 1,6 UV-I 428 W/m 2,4 C -0,3 C 53,1 km/h (7 Bft) 94,64 %
02.03.2017 12:56 9,3 C 63 % 1012,8 hPa 0,0 l/m 27,2 km/h (4 Bft) W-SW 250 2 min 0,000 mm 1,5 UV-I 410 W/m 2,6 C 0,3 C 40,2 km/h (6 Bft) 97,37 %
02.03.2017 12:58 9,3 C 62 % 1012,8 hPa 0,0 l/m 29,1 km/h (5 Bft) W-SW 240 0 min 0,000 mm 1,2 UV-I 303 W/m 2,4 C -0,1 C 46,7 km/h (6 Bft) 96,43 %
02.03.2017 13:00 9,3 C 64 % 1012,8 hPa 0,0 l/m 24,9 km/h (4 Bft) W-SW 244 0 min 0,229 mm 1,0 UV-I 236 W/m 2,8 C 0,9 C 35,4 km/h (5 Bft) 92,68 %
02.03.2017 13:02 9,2 C 64 % 1012,8 hPa 0,0 l/m 28,2 km/h (4 Bft) W 265 0 min 0,000 mm 0,9 UV-I 235 W/m 2,8 C -0,1 C 48,3 km/h (6 Bft) 91,49 %
02.03.2017 13:04 9,2 C 65 % 1012,9 hPa 0,0 l/m 21,3 km/h (4 Bft) W 273 0 min 0,000 mm 1,1 UV-I 296 W/m 3,0 C 1,8 C 29,0 km/h (5 Bft) 91,49 %
02.03.2017 13:06 9,2 C 65 % 1012,9 hPa 0,0 l/m 25,0 km/h (4 Bft) W 260 0 min 0,000 mm 1,2 UV-I 302 W/m 3,0 C 0,7 C 38,6 km/h (5 Bft) 95,45 %
02.03.2017 13:08 9,2 C 66 % 1012,9 hPa 0,0 l/m 22,7 km/h (4 Bft) W 259 2 min 0,000 mm 1,2 UV-I 312 W/m 3,2 C 1,4 C 33,8 km/h (5 Bft) 97,83 %
02.03.2017 13:10 9,2 C 65 % 1012,8 hPa 0,0 l/m 24,7 km/h (4 Bft) W-SW 251 0 min 0,000 mm 1,0 UV-I 268 W/m 3,0 C 0,8 C 41,8 km/h (6 Bft) 98,11 %
02.03.2017 13:12 9,2 C 65 % 1012,7 hPa 0,0 l/m 19,2 km/h (3 Bft) W-SW 254 0 min 0,000 mm 1,0 UV-I 234 W/m 3,0 C 2,5 C 27,4 km/h (4 Bft) 97,87 %
02.03.2017 13:14 9,2 C 65 % 1012,8 hPa 0,0 l/m 20,7 km/h (4 Bft) W-SW 249 0 min 0,000 mm 1,2 UV-I 270 W/m 3,0 C 2,0 C 32,2 km/h (5 Bft) 96,00 %
02.03.2017 13:16 9,2 C 65 % 1012,7 hPa 0,0 l/m 26,9 km/h (4 Bft) SW 234 2 min 0,000 mm 1,4 UV-I 329 W/m 3,0 C 0,3 C 38,6 km/h (5 Bft) 93,62 %
02.03.2017 13:18 9,3 C 65 % 1012,7 hPa 0,0 l/m 24,4 km/h (4 Bft) SW 229 2 min 0,000 mm 1,5 UV-I 361 W/m 3,1 C 1,0 C 33,8 km/h (5 Bft) 95,74 %
02.03.2017 13:20 9,3 C 64 % 1012,7 hPa 0,0 l/m 24,0 km/h (4 Bft) W-SW 257 2 min 0,000 mm 1,6 UV-I 393 W/m 2,8 C 1,2 C 37,0 km/h (5 Bft) 94,87 %
02.03.2017 13:22 9,4 C 66 % 1013,0 hPa 0,0 l/m 18,6 km/h (3 Bft) W-NW 292 2 min 0,000 mm 1,7 UV-I 589 W/m 3,4 C 3,0 C 32,2 km/h (5 Bft) 96,23 %
02.03.2017 13:24 9,5 C 66 % 1013,0 hPa 0,0 l/m 15,5 km/h (3 Bft) W-SW 248 2 min 0,000 mm 1,3 UV-I 486 W/m 3,5 C 4,3 C 20,9 km/h (4 Bft) 95,12 %
02.03.2017 13:26 9,5 C 67 % 1013,0 hPa 0,0 l/m 17,5 km/h (3 Bft) W-SW 238 0 min 0,000 mm 1,2 UV-I 188 W/m 3,7 C 3,5 C 29,0 km/h (5 Bft) 98,11 %
02.03.2017 13:28 9,4 C 67 % 1012,9 hPa 0,0 l/m 21,4 km/h (4 Bft) W-SW 257 2 min 0,000 mm 1,2 UV-I 309 W/m 3,6 C 2,1 C 30,6 km/h (5 Bft) 97,37 %
02.03.2017 13:30 9,5 C 70 % 1012,9 hPa 0,0 l/m 17,0 km/h (3 Bft) S-SW 213 2 min 0,000 mm 1,7 UV-I 472 W/m 4,3 C 3,7 C 25,7 km/h (4 Bft) 97,87 %
02.03.2017 13:32 9,6 C 69 % 1012,9 hPa 0,0 l/m 19,4 km/h (3 Bft) SW 236 2 min 0,000 mm 1,6 UV-I 712 W/m 4,2 C 3,0 C 30,6 km/h (5 Bft) 98,21 %
02.03.2017 13:34 9,6 C 71 % 1012,9 hPa 0,0 l/m 17,0 km/h (3 Bft) S-SW 211 2 min 0,000 mm 1,8 UV-I 716 W/m 4,6 C 3,8 C 30,6 km/h (5 Bft) 100,00 %
02.03.2017 13:36 9,6 C 69 % 1013,0 hPa 0,0 l/m 17,5 km/h (3 Bft) SW 228 2 min 0,000 mm 1,3 UV-I 383 W/m 4,2 C 3,6 C 32,2 km/h (5 Bft) 96,00 %
02.03.2017 13:38 9,6 C 69 % 1013,0 hPa 0,0 l/m 24,2 km/h (4 Bft) S-SW 206 2 min 0,000 mm 1,6 UV-I 531 W/m 4,2 C 1,5 C 33,8 km/h (5 Bft) 100,00 %
02.03.2017 13:40 9,7 C 70 % 1013,0 hPa 0,0 l/m 19,4 km/h (3 Bft) S-SW 193 2 min 0,000 mm 1,7 UV-I 664 W/m 4,5 C 3,1 C 29,0 km/h (5 Bft) 97,73 %
02.03.2017 13:42 9,8 C 70 % 1013,0 hPa 0,0 l/m 19,3 km/h (3 Bft) SW 234 2 min 0,000 mm 1,7 UV-I 729 W/m 4,6 C 3,3 C 30,6 km/h (5 Bft) 93,33 %
02.03.2017 13:44 9,9 C 69 % 1013,1 hPa 0,0 l/m 21,6 km/h (4 Bft) W-SW 242 2 min 0,000 mm 1,5 UV-I 789 W/m 4,5 C 2,7 C 32,2 km/h (5 Bft) 98,00 %
02.03.2017 13:46 10,1 C 69 % 1013,1 hPa 0,0 l/m 20,9 km/h (4 Bft) W-SW 248 2 min 0,000 mm 1,4 UV-I 491 W/m 4,7 C 3,1 C 32,2 km/h (5 Bft) 100,00 %
02.03.2017 13:48 10,1 C 67 % 1013,1 hPa 0,0 l/m 23,7 km/h (4 Bft) W-SW 240 2 min 0,000 mm 1,5 UV-I 655 W/m 4,3 C 2,3 C 41,8 km/h (6 Bft) 94,64 %
02.03.2017 13:50 10,0 C 67 % 1013,2 hPa 0,0 l/m 23,4 km/h (4 Bft) S-SW 212 2 min 0,000 mm 1,5 UV-I 738 W/m 4,2 C 2,3 C 40,2 km/h (6 Bft) 97,56 %
02.03.2017 13:52 9,9 C 68 % 1013,2 hPa 0,0 l/m 21,3 km/h (4 Bft) W-SW 252 2 min 0,000 mm 1,2 UV-I 420 W/m 4,3 C 2,7 C 30,6 km/h (5 Bft) 96,00 %
02.03.2017 13:54 9,8 C 67 % 1013,1 hPa 0,0 l/m 24,3 km/h (4 Bft) S 188 0 min 0,000 mm 1,0 UV-I 248 W/m 4,0 C 1,7 C 40,2 km/h (6 Bft) 94,00 %
02.03.2017 13:56 9,8 C 67 % 1013,1 hPa 0,0 l/m 21,6 km/h (4 Bft) W-SW 239 2 min 0,000 mm 1,3 UV-I 420 W/m 4,0 C 2,5 C 37,0 km/h (5 Bft) 100,00 %
02.03.2017 13:58 10,0 C 68 % 1013,2 hPa 0,0 l/m 16,8 km/h (3 Bft) SW 235 2 min 0,000 mm 1,3 UV-I 419 W/m 4,4 C 4,4 C 25,7 km/h (4 Bft) 94,87 %
02.03.2017 14:00 10,2 C 66 % 1013,2 hPa 0,0 l/m 19,2 km/h (3 Bft) W-SW 244 2 min 0,279 mm 1,2 UV-I 336 W/m 4,1 C 3,8 C 29,0 km/h (5 Bft) 94,55 %
02.03.2017 14:03 10,2 C 68 % 1013,2 hPa 0,0 l/m 17,8 km/h (3 Bft) W-SW 242 3 min 0,000 mm 1,3 UV-I 283 W/m 4,6 C 4,3 C 30,6 km/h (5 Bft) 100,00 %
02.03.2017 14:04 10,2 C 68 % 1013,2 hPa 0,0 l/m 14,0 km/h (3 Bft) W 265 1 min 0,000 mm 1,4 UV-I 283 W/m 4,6 C 5,8 C 22,5 km/h (4 Bft) 100,00 %
02.03.2017 14:06 10,4 C 67 % 1013,2 hPa 0,0 l/m 18,1 km/h (3 Bft) SW 231 2 min 0,000 mm 1,4 UV-I 285 W/m 4,5 C 4,4 C 32,2 km/h (5 Bft) 92,45 %
02.03.2017 14:08 10,3 C 65 % 1013,2 hPa 0,0 l/m 25,9 km/h (4 Bft) SW 234 2 min 0,000 mm 1,5 UV-I 480 W/m 4,0 C 2,0 C 40,2 km/h (6 Bft) 92,45 %
02.03.2017 14:10 10,3 C 64 % 1013,1 hPa 0,0 l/m 22,9 km/h (4 Bft) S-SW 201 2 min 0,000 mm 1,4 UV-I 617 W/m 3,8 C 2,8 C 37,0 km/h (5 Bft) 97,87 %
02.03.2017 14:12 10,2 C 64 % 1013,2 hPa 0,0 l/m 24,8 km/h (4 Bft) W-SW 239 2 min 0,000 mm 1,4 UV-I 535 W/m 3,7 C 2,2 C 40,2 km/h (6 Bft) 100,00 %
02.03.2017 14:14 10,2 C 65 % 1013,2 hPa 0,0 l/m 17,3 km/h (3 Bft) W-SW 251 2 min 0,000 mm 1,4 UV-I 523 W/m 3,9 C 4,5 C 29,0 km/h (5 Bft) 100,00 %
02.03.2017 14:16 10,3 C 66 % 1013,2 hPa 0,0 l/m 16,0 km/h (3 Bft) W 259 2 min 0,000 mm 1,3 UV-I 520 W/m 4,2 C 5,1 C 24,1 km/h (4 Bft) 91,49 %
02.03.2017 14:18 10,3 C 63 % 1013,1 hPa 0,0 l/m 22,7 km/h (4 Bft) SW 225 2 min 0,000 mm 1,3 UV-I 510 W/m 3,6 C 2,9 C 35,4 km/h (5 Bft) 95,74 %
02.03.2017 14:20 10,2 C 62 % 1013,2 hPa 0,0 l/m 25,9 km/h (4 Bft) W-SW 253 2 min 0,000 mm 1,2 UV-I 492 W/m 3,3 C 1,9 C 38,6 km/h (5 Bft) 100,00 %
02.03.2017 14:22 10,1 C 63 % 1013,2 hPa 0,0 l/m 19,8 km/h (3 Bft) SW 224 2 min 0,000 mm 1,3 UV-I 497 W/m 3,4 C 3,5 C 30,6 km/h (5 Bft) 93,62 %
02.03.2017 14:24 10,1 C 61 % 1013,1 hPa 0,0 l/m 24,2 km/h (4 Bft) W 263 2 min 0,000 mm 1,3 UV-I 506 W/m 2,9 C 2,2 C 38,6 km/h (5 Bft) 95,74 %
02.03.2017 14:26 10,2 C 63 % 1013,2 hPa 0,0 l/m 20,8 km/h (4 Bft) W-SW 237 2 min 0,000 mm 1,3 UV-I 507 W/m 3,5 C 3,3 C 29,0 km/h (5 Bft) 100,00 %
02.03.2017 14:28 10,2 C 60 % 1013,3 hPa 0,0 l/m 18,5 km/h (3 Bft) W 277 2 min 0,000 mm 1,2 UV-I 476 W/m 2,8 C 4,0 C 29,0 km/h (5 Bft) 96,00 %
02.03.2017 14:30 10,3 C 59 % 1013,3 hPa 0,2 l/m 26,3 km/h (4 Bft) W-SW 245 2 min 0,000 mm 1,2 UV-I 478 W/m 2,6 C 1,9 C 41,8 km/h (6 Bft) 93,18 %
02.03.2017 14:32 10,2 C 59 % 1013,3 hPa 0,0 l/m 24,6 km/h (4 Bft) W 267 2 min 0,000 mm 1,2 UV-I 508 W/m 2,6 C 2,2 C 32,2 km/h (5 Bft) 98,11 %
02.03.2017 14:34 10,3 C 60 % 1013,3 hPa 0,0 l/m 21,3 km/h (4 Bft) W-SW 253 2 min 0,000 mm 1,2 UV-I 491 W/m 2,9 C 3,3 C 37,0 km/h (5 Bft) 97,44 %
02.03.2017 14:36 10,3 C 58 % 1013,3 hPa 0,0 l/m 29,2 km/h (5 Bft) W-SW 254 2 min 0,000 mm 1,2 UV-I 487 W/m 2,4 C 1,2 C 46,7 km/h (6 Bft) 93,18 %
02.03.2017 14:38 10,3 C 58 % 1013,3 hPa 0,0 l/m 16,8 km/h (3 Bft) SW 234 2 min 0,000 mm 1,2 UV-I 459 W/m 2,4 C 4,8 C 25,7 km/h (4 Bft) 90,70 %
02.03.2017 14:40 10,4 C 59 % 1013,3 hPa 0,0 l/m 19,7 km/h (3 Bft) SW 229 2 min 0,000 mm 1,0 UV-I 378 W/m 2,7 C 3,9 C 33,8 km/h (5 Bft) 98,11 %
02.03.2017 14:42 10,3 C 56 % 1013,4 hPa 0,0 l/m 24,3 km/h (4 Bft) W-SW 255 2 min 0,000 mm 0,9 UV-I 249 W/m 1,9 C 2,4 C 41,8 km/h (6 Bft) 97,56 %
02.03.2017 14:44 10,2 C 56 % 1013,4 hPa 0,0 l/m 24,3 km/h (4 Bft) SW 222 0 min 0,000 mm 0,8 UV-I 200 W/m 1,8 C 2,3 C 33,8 km/h (5 Bft) 95,38 %
02.03.2017 14:46 10,0 C 56 % 1013,4 hPa 0,0 l/m 27,0 km/h (4 Bft) S-SW 200 0 min 0,000 mm 0,9 UV-I 183 W/m 1,6 C 1,3 C 38,6 km/h (5 Bft) 97,14 %
02.03.2017 14:48 10,0 C 57 % 1013,5 hPa 0,0 l/m 25,3 km/h (4 Bft) W-SW 257 2 min 0,000 mm 1,1 UV-I 482 W/m 1,9 C 1,8 C 38,6 km/h (5 Bft) 97,73 %
02.03.2017 14:50 10,1 C 58 % 1013,5 hPa 0,0 l/m 17,8 km/h (3 Bft) SW 216 2 min 0,000 mm 1,0 UV-I 494 W/m 2,2 C 4,2 C 22,5 km/h (4 Bft) 91,07 %
02.03.2017 14:52 10,2 C 58 % 1013,5 hPa 0,0 l/m 20,6 km/h (4 Bft) S 178 2 min 0,000 mm 1,0 UV-I 450 W/m 2,3 C 3,4 C 35,4 km/h (5 Bft) 95,12 %
02.03.2017 14:54 10,3 C 58 % 1013,6 hPa 0,0 l/m 15,9 km/h (3 Bft) SW 233 2 min 0,000 mm 1,0 UV-I 481 W/m 2,4 C 5,1 C 25,7 km/h (4 Bft) 93,62 %
02.03.2017 14:56 10,3 C 57 % 1013,5 hPa 0,0 l/m 20,7 km/h (4 Bft) W-SW 240 2 min 0,000 mm 0,9 UV-I 425 W/m 2,2 C 3,5 C 32,2 km/h (5 Bft) 94,00 %
02.03.2017 14:58 10,3 C 57 % 1013,5 hPa 0,0 l/m 18,6 km/h (3 Bft) W-SW 252 0 min 0,000 mm 0,8 UV-I 228 W/m 2,2 C 4,1 C 29,0 km/h (5 Bft) 94,34 %
02.03.2017 15:00 10,1 C 55 % 1013,5 hPa 0,0 l/m 23,9 km/h (4 Bft) SW 231 2 min 0,280 mm 0,8 UV-I 234 W/m 1,5 C 2,3 C 35,4 km/h (5 Bft) 89,36 %
02.03.2017 15:02 10,1 C 55 % 1013,5 hPa 0,0 l/m 21,7 km/h (4 Bft) SW 233 2 min 0,000 mm 0,9 UV-I 444 W/m 1,5 C 2,9 C 33,8 km/h (5 Bft) 100,00 %
02.03.2017 15:04 10,1 C 57 % 1013,5 hPa 0,0 l/m 21,7 km/h (4 Bft) SW 215 2 min 0,000 mm 0,9 UV-I 415 W/m 2,0 C 2,9 C 33,8 km/h (5 Bft) 96,23 %
02.03.2017 15:06 10,1 C 58 % 1013,6 hPa 0,0 l/m 26,4 km/h (4 Bft) W-SW 243 2 min 0,000 mm 0,9 UV-I 403 W/m 2,2 C 1,6 C 38,6 km/h (5 Bft) 94,74 %
02.03.2017 15:08 10,1 C 57 % 1013,5 hPa 0,0 l/m 26,2 km/h (4 Bft) SW 229 2 min 0,000 mm 0,8 UV-I 387 W/m 2,0 C 1,7 C 37,0 km/h (5 Bft) 100,00 %
02.03.2017 15:10 10,1 C 57 % 1013,7 hPa 0,0 l/m 22,2 km/h (4 Bft) SW 225 2 min 0,000 mm 0,8 UV-I 370 W/m 2,0 C 2,7 C 37,0 km/h (5 Bft) 98,00 %
02.03.2017 15:12 10,1 C 56 % 1013,6 hPa 0,0 l/m 22,6 km/h (4 Bft) W 261 2 min 0,000 mm 0,8 UV-I 363 W/m 1,7 C 2,6 C 33,8 km/h (5 Bft) 98,11 %
02.03.2017 15:14 10,1 C 55 % 1013,7 hPa 0,0 l/m 21,5 km/h (4 Bft) SW 224 2 min 0,000 mm 0,8 UV-I 356 W/m 1,5 C 2,9 C 32,2 km/h (5 Bft) 94,74 %
02.03.2017 15:16 10,1 C 58 % 1013,7 hPa 0,0 l/m 18,2 km/h (3 Bft) SW 232 2 min 0,000 mm 0,8 UV-I 358 W/m 2,2 C 4,0 C 29,0 km/h (5 Bft) 96,00 %
02.03.2017 15:18 10,1 C 57 % 1013,7 hPa 0,0 l/m 22,2 km/h (4 Bft) W-SW 241 2 min 0,000 mm 0,7 UV-I 362 W/m 2,0 C 2,7 C 32,2 km/h (5 Bft) 92,31 %
02.03.2017 15:20 10,2 C 57 % 1013,7 hPa 0,0 l/m 20,9 km/h (4 Bft) SW 215 2 min 0,000 mm 0,7 UV-I 358 W/m 2,1 C 3,3 C 30,6 km/h (5 Bft) 100,00 %
02.03.2017 15:22 10,2 C 57 % 1013,7 hPa 0,0 l/m 24,5 km/h (4 Bft) S-SW 202 2 min 0,000 mm 0,7 UV-I 348 W/m 2,1 C 2,2 C 32,2 km/h (5 Bft) 97,87 %
02.03.2017 15:24 10,1 C 57 % 1013,7 hPa 0,0 l/m 19,6 km/h (3 Bft) W-SW 238 2 min 0,000 mm 0,7 UV-I 340 W/m 2,0 C 3,5 C 27,4 km/h (4 Bft) 100,00 %
02.03.2017 15:26 10,1 C 58 % 1013,7 hPa 0,0 l/m 22,5 km/h (4 Bft) SW 227 2 min 0,000 mm 0,7 UV-I 317 W/m 2,2 C 2,7 C 30,6 km/h (5 Bft) 97,56 %
02.03.2017 15:28 10,1 C 56 % 1013,7 hPa 0,0 l/m 24,5 km/h (4 Bft) SW 223 2 min 0,000 mm 0,6 UV-I 294 W/m 1,7 C 2,1 C 33,8 km/h (5 Bft) 98,00 %
02.03.2017 15:30 10,1 C 57 % 1013,7 hPa 0,0 l/m 21,1 km/h (4 Bft) W-SW 247 2 min 0,000 mm 0,6 UV-I 292 W/m 2,0 C 3,1 C 30,6 km/h (5 Bft) 100,00 %
02.03.2017 15:32 10,1 C 58 % 1013,7 hPa 0,0 l/m 22,9 km/h (4 Bft) S-SW 213 2 min 0,000 mm 0,6 UV-I 297 W/m 2,2 C 2,5 C 35,4 km/h (5 Bft) 94,74 %
02.03.2017 15:34 10,1 C 57 % 1013,9 hPa 0,0 l/m 22,7 km/h (4 Bft) SW 221 2 min 0,000 mm 0,6 UV-I 293 W/m 2,0 C 2,6 C 33,8 km/h (5 Bft) 96,43 %
02.03.2017 15:36 10,1 C 58 % 1013,8 hPa 0,0 l/m 21,0 km/h (4 Bft) S-SW 207 2 min 0,000 mm 0,6 UV-I 288 W/m 2,2 C 3,1 C 30,6 km/h (5 Bft) 96,67 %
02.03.2017 15:38 10,1 C 58 % 1013,9 hPa 0,0 l/m 18,5 km/h (3 Bft) SW 229 2 min 0,000 mm 0,5 UV-I 266 W/m 2,2 C 3,9 C 30,6 km/h (5 Bft) 96,72 %
02.03.2017 15:40 10,1 C 58 % 1013,9 hPa 0,0 l/m 18,5 km/h (3 Bft) SW 217 2 min 0,000 mm 0,5 UV-I 287 W/m 2,2 C 3,9 C 32,2 km/h (5 Bft) 100,00 %
02.03.2017 15:42 10,1 C 59 % 1013,9 hPa 0,0 l/m 17,2 km/h (3 Bft) W 261 2 min 0,000 mm 0,5 UV-I 274 W/m 2,5 C 4,4 C 30,6 km/h (5 Bft) 97,56 %
02.03.2017 15:44 10,1 C 58 % 1013,9 hPa 0,0 l/m 17,8 km/h (3 Bft) SW 232 2 min 0,000 mm 0,5 UV-I 261 W/m 2,2 C 4,2 C 30,6 km/h (5 Bft) 97,56 %
02.03.2017 15:46 10,0 C 59 % 1013,9 hPa 0,0 l/m 17,3 km/h (3 Bft) S-SW 211 2 min 0,000 mm 0,5 UV-I 252 W/m 2,4 C 4,2 C 25,7 km/h (4 Bft) 100,00 %
02.03.2017 15:48 10,1 C 60 % 1013,9 hPa 0,0 l/m 17,3 km/h (3 Bft) S-SW 203 2 min 0,000 mm 0,5 UV-I 262 W/m 2,7 C 4,4 C 32,2 km/h (5 Bft) 100,00 %
02.03.2017 15:50 10,0 C 59 % 1013,9 hPa 0,0 l/m 18,5 km/h (3 Bft) W-SW 254 2 min 0,000 mm 0,5 UV-I 255 W/m 2,4 C 3,8 C 29,0 km/h (5 Bft) 98,21 %
02.03.2017 15:52 9,9 C 60 % 1013,9 hPa 0,0 l/m 16,9 km/h (3 Bft) W-SW 253 2 min 0,000 mm 0,1 UV-I 228 W/m 2,5 C 4,3 C 25,7 km/h (4 Bft) 100,00 %
02.03.2017 15:54 9,9 C 60 % 1013,8 hPa 0,0 l/m 15,5 km/h (3 Bft) SW 234 2 min 0,000 mm 0,0 UV-I 194 W/m 2,5 C 4,8 C 27,4 km/h (4 Bft) 95,24 %
02.03.2017 15:56 9,9 C 59 % 1013,9 hPa 0,0 l/m 19,7 km/h (3 Bft) S-SW 213 2 min 0,000 mm 0,0 UV-I 220 W/m 2,3 C 3,3 C 32,2 km/h (5 Bft) 98,08 %
02.03.2017 15:58 9,8 C 59 % 1013,8 hPa 0,0 l/m 21,4 km/h (4 Bft) S-SW 199 2 min 0,000 mm 0,0 UV-I 245 W/m 2,2 C 2,6 C 29,0 km/h (5 Bft) 92,86 %
02.03.2017 16:00 9,8 C 59 % 1013,7 hPa 0,0 l/m 20,8 km/h (4 Bft) W-SW 240 2 min 0,228 mm 0,0 UV-I 238 W/m 2,2 C 2,8 C 32,2 km/h (5 Bft) 96,23 %
02.03.2017 16:02 9,8 C 60 % 1013,9 hPa 0,0 l/m 17,8 km/h (3 Bft) S-SW 194 2 min 0,000 mm 0,0 UV-I 213 W/m 2,4 C 3,8 C 29,0 km/h (5 Bft) 98,00 %
02.03.2017 16:04 9,8 C 60 % 1013,9 hPa 0,0 l/m 20,9 km/h (4 Bft) SW 229 2 min 0,000 mm 0,0 UV-I 211 W/m 2,4 C 2,7 C 35,4 km/h (5 Bft) 94,74 %
02.03.2017 16:06 9,8 C 60 % 1013,9 hPa 0,0 l/m 19,7 km/h (3 Bft) SW 235 2 min 0,000 mm 0,0 UV-I 189 W/m 2,4 C 3,1 C 32,2 km/h (5 Bft) 94,34 %
02.03.2017 16:08 9,8 C 60 % 1013,9 hPa 0,0 l/m 19,6 km/h (3 Bft) S-SW 212 2 min 0,000 mm 0,0 UV-I 170 W/m 2,4 C 3,2 C 33,8 km/h (5 Bft) 92,00 %
02.03.2017 16:10 9,8 C 60 % 1014,0 hPa 0,0 l/m 17,9 km/h (3 Bft) S 190 2 min 0,000 mm 0,0 UV-I 190 W/m 2,4 C 3,8 C 29,0 km/h (5 Bft) 89,47 %
02.03.2017 16:12 9,8 C 60 % 1013,9 hPa 0,0 l/m 22,2 km/h (4 Bft) W-SW 245 2 min 0,000 mm 0,0 UV-I 187 W/m 2,4 C 2,3 C 40,2 km/h (6 Bft) 98,00 %
02.03.2017 16:14 9,7 C 59 % 1013,9 hPa 0,0 l/m 17,7 km/h (3 Bft) W-SW 253 2 min 0,000 mm 0,0 UV-I 179 W/m 2,1 C 3,7 C 25,7 km/h (4 Bft) 94,74 %
02.03.2017 16:16 9,8 C 60 % 1013,9 hPa 0,0 l/m 17,6 km/h (3 Bft) W-SW 237 2 min 0,000 mm 0,0 UV-I 187 W/m 2,4 C 3,9 C 27,4 km/h (4 Bft) 93,22 %
02.03.2017 16:18 9,7 C 61 % 1013,8 hPa 0,0 l/m 17,2 km/h (3 Bft) W-SW 240 2 min 0,000 mm 0,0 UV-I 167 W/m 2,5 C 3,9 C 29,0 km/h (5 Bft) 94,74 %
02.03.2017 16:20 9,7 C 60 % 1013,9 hPa 0,0 l/m 15,8 km/h (3 Bft) W-SW 242 2 min 0,000 mm 0,0 UV-I 167 W/m 2,3 C 4,4 C 32,2 km/h (5 Bft) 92,86 %
02.03.2017 16:22 9,7 C 60 % 1013,9 hPa 0,0 l/m 19,2 km/h (3 Bft) W-SW 237 2 min 0,000 mm 0,0 UV-I 155 W/m 2,3 C 3,2 C 25,7 km/h (4 Bft) 95,12 %
02.03.2017 16:24 9,7 C 60 % 1013,9 hPa 0,0 l/m 21,6 km/h (4 Bft) W-SW 239 2 min 0,000 mm 0,0 UV-I 148 W/m 2,3 C 2,4 C 30,6 km/h (5 Bft) 94,00 %
02.03.2017 16:26 9,7 C 60 % 1013,9 hPa 0,0 l/m 18,2 km/h (3 Bft) W-SW 240 2 min 0,000 mm 0,0 UV-I 146 W/m 2,3 C 3,5 C 32,2 km/h (5 Bft) 93,62 %
02.03.2017 16:28 9,6 C 60 % 1013,9 hPa 0,0 l/m 23,6 km/h (4 Bft) SW 234 2 min 0,000 mm 0,0 UV-I 148 W/m 2,2 C 1,7 C 30,6 km/h (5 Bft) 94,00 %
02.03.2017 16:30 9,6 C 61 % 1013,9 hPa 0,0 l/m 16,7 km/h (3 Bft) SW 234 2 min 0,000 mm 0,0 UV-I 145 W/m 2,5 C 4,0 C 24,1 km/h (4 Bft) 92,68 %
02.03.2017 16:32 9,6 C 61 % 1014,0 hPa 0,0 l/m 17,3 km/h (3 Bft) S-SW 204 0 min 0,000 mm 0,0 UV-I 108 W/m 2,5 C 3,7 C 27,4 km/h (4 Bft) 94,34 %
02.03.2017 16:34 9,5 C 61 % 1014,0 hPa 0,0 l/m 18,7 km/h (3 Bft) S-SW 212 0 min 0,000 mm 0,0 UV-I 105 W/m 2,4 C 3,1 C 32,2 km/h (5 Bft) 94,87 %
02.03.2017 16:36 9,4 C 62 % 1014,0 hPa 0,0 l/m 17,8 km/h (3 Bft) SW 231 0 min 0,000 mm 0,0 UV-I 75 W/m 2,5 C 3,3 C 29,0 km/h (5 Bft) 95,92 %
02.03.2017 16:38 9,4 C 62 % 1014,0 hPa 0,0 l/m 21,7 km/h (4 Bft) W-SW 246 0 min 0,000 mm 0,0 UV-I 74 W/m 2,5 C 2,0 C 33,8 km/h (5 Bft) 97,87 %
02.03.2017 16:40 9,3 C 62 % 1014,0 hPa 0,0 l/m 17,1 km/h (3 Bft) W-SW 241 0 min 0,000 mm 0,0 UV-I 69 W/m 2,4 C 3,4 C 24,1 km/h (4 Bft) 92,00 %
02.03.2017 16:42 9,3 C 62 % 1014,0 hPa 0,0 l/m 16,5 km/h (3 Bft) SW 236 0 min 0,000 mm 0,0 UV-I 67 W/m 2,4 C 3,7 C 27,4 km/h (4 Bft) 100,00 %
02.03.2017 16:44 9,2 C 62 % 1014,0 hPa 0,0 l/m 16,8 km/h (3 Bft) W-SW 246 0 min 0,000 mm 0,0 UV-I 60 W/m 2,3 C 3,4 C 24,1 km/h (4 Bft) 90,91 %
02.03.2017 16:46 9,2 C 62 % 1014,1 hPa 0,0 l/m 18,5 km/h (3 Bft) W-SW 247 0 min 0,000 mm 0,0 UV-I 58 W/m 2,3 C 2,8 C 27,4 km/h (4 Bft) 96,61 %
02.03.2017 16:48 9,2 C 63 % 1014,0 hPa 0,0 l/m 16,2 km/h (3 Bft) SW 230 0 min 0,000 mm 0,0 UV-I 59 W/m 2,5 C 3,7 C 24,1 km/h (4 Bft) 93,62 %
02.03.2017 16:50 9,2 C 62 % 1014,1 hPa 0,0 l/m 18,1 km/h (3 Bft) W-SW 245 0 min 0,000 mm 0,0 UV-I 64 W/m 2,3 C 2,9 C 22,5 km/h (4 Bft) 97,37 %
02.03.2017 16:52 9,2 C 62 % 1014,1 hPa 0,0 l/m 16,1 km/h (3 Bft) W-SW 242 0 min 0,000 mm 0,0 UV-I 69 W/m 2,3 C 3,7 C 25,7 km/h (4 Bft) 96,00 %
02.03.2017 16:54 9,1 C 62 % 1014,0 hPa 0,0 l/m 16,9 km/h (3 Bft) SW 235 0 min 0,000 mm 0,0 UV-I 62 W/m 2,2 C 3,3 C 25,7 km/h (4 Bft) 96,23 %
02.03.2017 16:56 9,1 C 62 % 1014,1 hPa 0,0 l/m 17,3 km/h (3 Bft) W-SW 247 0 min 0,000 mm 0,0 UV-I 53 W/m 2,2 C 3,1 C 27,4 km/h (4 Bft) 95,12 %
02.03.2017 16:58 9,1 C 63 % 1014,1 hPa 0,0 l/m 13,8 km/h (3 Bft) S-SW 205 0 min 0,000 mm 0,0 UV-I 49 W/m 2,4 C 4,6 C 22,5 km/h (4 Bft) 94,34 %
02.03.2017 17:00 9,1 C 63 % 1014,1 hPa 0,0 l/m 17,2 km/h (3 Bft) W-SW 252 0 min 0,000 mm 0,0 UV-I 48 W/m 2,4 C 3,1 C 27,4 km/h (4 Bft) 97,56 %
02.03.2017 17:02 9,1 C 63 % 1014,1 hPa 0,0 l/m 15,7 km/h (3 Bft) W-SW 250 0 min 0,127 mm 0,0 UV-I 47 W/m 2,4 C 3,7 C 20,9 km/h (4 Bft) 95,12 %
02.03.2017 17:04 9,1 C 62 % 1014,1 hPa 0,0 l/m 13,5 km/h (3 Bft) W-SW 244 0 min 0,000 mm 0,0 UV-I 48 W/m 2,2 C 4,7 C 24,1 km/h (4 Bft) 95,74 %
02.03.2017 17:06 9,1 C 61 % 1014,1 hPa 0,0 l/m 20,9 km/h (4 Bft) SW 235 0 min 0,000 mm 0,0 UV-I 56 W/m 2,0 C 1,8 C 32,2 km/h (5 Bft) 89,36 %
02.03.2017 17:08 9,1 C 61 % 1014,1 hPa 0,0 l/m 19,3 km/h (3 Bft) SW 226 2 min 0,000 mm 0,0 UV-I 74 W/m 2,0 C 2,4 C 25,7 km/h (4 Bft) 96,00 %
02.03.2017 17:10 9,2 C 61 % 1014,1 hPa 0,0 l/m 16,2 km/h (3 Bft) W-SW 254 2 min 0,000 mm 0,0 UV-I 67 W/m 2,1 C 3,7 C 22,5 km/h (4 Bft) 97,73 %
02.03.2017 17:12 9,2 C 61 % 1014,2 hPa 0,0 l/m 17,1 km/h (3 Bft) W-SW 246 2 min 0,000 mm 0,0 UV-I 66 W/m 2,1 C 3,3 C 22,5 km/h (4 Bft) 96,23 %
02.03.2017 17:14 9,2 C 61 % 1014,2 hPa 0,0 l/m 16,7 km/h (3 Bft) SW 234 2 min 0,000 mm 0,0 UV-I 67 W/m 2,1 C 3,5 C 24,1 km/h (4 Bft) 95,56 %
02.03.2017 17:16 9,3 C 60 % 1014,3 hPa 0,0 l/m 17,1 km/h (3 Bft) SW 220 2 min 0,000 mm 0,0 UV-I 70 W/m 1,9 C 3,4 C 24,1 km/h (4 Bft) 96,15 %
02.03.2017 17:18 9,3 C 60 % 1014,3 hPa 0,0 l/m 15,0 km/h (3 Bft) W-SW 258 2 min 0,000 mm 0,0 UV-I 70 W/m 1,9 C 4,3 C 19,3 km/h (3 Bft) 92,31 %
02.03.2017 17:20 9,3 C 59 % 1014,4 hPa 0,0 l/m 19,6 km/h (3 Bft) W-SW 242 2 min 0,000 mm 0,0 UV-I 63 W/m 1,7 C 2,5 C 27,4 km/h (4 Bft) 98,11 %
02.03.2017 17:22 9,3 C 59 % 1014,4 hPa 0,0 l/m 19,4 km/h (3 Bft) W-SW 254 2 min 0,000 mm 0,0 UV-I 54 W/m 1,7 C 2,6 C 30,6 km/h (5 Bft) 92,11 %
02.03.2017 17:24 9,3 C 59 % 1014,4 hPa 0,0 l/m 15,9 km/h (3 Bft) W 265 2 min 0,000 mm 0,0 UV-I 43 W/m 1,7 C 3,9 C 24,1 km/h (4 Bft) 94,92 %
02.03.2017 17:26 9,3 C 58 % 1014,4 hPa 0,0 l/m 17,9 km/h (3 Bft) SW 224 2 min 0,000 mm 0,0 UV-I 48 W/m 1,5 C 3,1 C 24,1 km/h (4 Bft) 95,12 %
02.03.2017 17:28 9,3 C 58 % 1014,5 hPa 0,0 l/m 15,5 km/h (3 Bft) W-SW 249 2 min 0,000 mm 0,0 UV-I 41 W/m 1,5 C 4,1 C 22,5 km/h (4 Bft) 98,00 %
02.03.2017 17:30 9,3 C 58 % 1014,5 hPa 0,0 l/m 18,8 km/h (3 Bft) SW 215 2 min 0,000 mm 0,0 UV-I 30 W/m 1,5 C 2,8 C 27,4 km/h (4 Bft) 95,12 %
02.03.2017 17:32 9,3 C 58 % 1014,5 hPa 0,0 l/m 18,7 km/h (3 Bft) S-SW 196 2 min 0,000 mm 0,0 UV-I 25 W/m 1,5 C 2,8 C 29,0 km/h (5 Bft) 96,23 %
02.03.2017 17:34 9,3 C 58 % 1014,5 hPa 0,0 l/m 16,4 km/h (3 Bft) W-SW 238 2 min 0,000 mm 0,0 UV-I 21 W/m 1,5 C 3,7 C 24,1 km/h (4 Bft) 97,56 %
02.03.2017 17:36 9,2 C 58 % 1014,6 hPa 0,0 l/m 17,3 km/h (3 Bft) W-SW 246 2 min 0,000 mm 0,0 UV-I 19 W/m 1,4 C 3,2 C 30,6 km/h (5 Bft) 95,45 %
02.03.2017 17:38 9,2 C 58 % 1014,6 hPa 0,0 l/m 16,2 km/h (3 Bft) W-SW 238 2 min 0,000 mm 0,0 UV-I 15 W/m 1,4 C 3,7 C 24,1 km/h (4 Bft) 95,74 %
02.03.2017 17:40 9,2 C 58 % 1014,7 hPa 0,0 l/m 17,4 km/h (3 Bft) W-SW 256 0 min 0,000 mm 0,0 UV-I 13 W/m 1,4 C 3,2 C 25,7 km/h (4 Bft) 95,74 %
02.03.2017 17:42 9,2 C 57 % 1014,7 hPa 0,0 l/m 15,6 km/h (3 Bft) W-SW 252 0 min 0,000 mm 0,0 UV-I 12 W/m 1,1 C 3,9 C 24,1 km/h (4 Bft) 95,83 %
02.03.2017 17:44 9,1 C 57 % 1014,7 hPa 0,0 l/m 16,7 km/h (3 Bft) W-SW 239 0 min 0,000 mm 0,0 UV-I 11 W/m 1,0 C 3,3 C 24,1 km/h (4 Bft) 98,21 %
02.03.2017 17:46 9,1 C 57 % 1014,8 hPa 0,0 l/m 16,3 km/h (3 Bft) S-SW 209 0 min 0,000 mm 0,0 UV-I 11 W/m 1,0 C 3,5 C 27,4 km/h (4 Bft) 93,33 %
02.03.2017 17:48 9,1 C 57 % 1014,8 hPa 0,0 l/m 16,5 km/h (3 Bft) W-SW 253 0 min 0,000 mm 0,0 UV-I 10 W/m 1,0 C 3,4 C 29,0 km/h (5 Bft) 96,55 %
02.03.2017 17:50 9,1 C 57 % 1014,8 hPa 0,0 l/m 17,3 km/h (3 Bft) W 261 0 min 0,000 mm 0,0 UV-I 9 W/m 1,0 C 3,1 C 27,4 km/h (4 Bft) 96,00 %
02.03.2017 17:52 9,0 C 56 % 1014,8 hPa 0,0 l/m 20,3 km/h (4 Bft) W-SW 244 0 min 0,000 mm 0,0 UV-I 7 W/m 0,7 C 1,9 C 29,0 km/h (5 Bft) 93,62 %
02.03.2017 17:54 8,9 C 56 % 1014,9 hPa 0,0 l/m 17,0 km/h (3 Bft) W-SW 247 0 min 0,000 mm 0,0 UV-I 7 W/m 0,6 C 3,0 C 27,4 km/h (4 Bft) 97,62 %
02.03.2017 17:56 8,9 C 56 % 1014,9 hPa 0,0 l/m 18,5 km/h (3 Bft) W-SW 257 0 min 0,000 mm 0,0 UV-I 7 W/m 0,6 C 2,4 C 30,6 km/h (5 Bft) 92,11 %
02.03.2017 17:58 8,8 C 56 % 1015,0 hPa 0,0 l/m 16,6 km/h (3 Bft) W-SW 246 0 min 0,000 mm 0,0 UV-I 6 W/m 0,5 C 3,0 C 24,1 km/h (4 Bft) 98,31 %
02.03.2017 18:00 8,8 C 56 % 1015,0 hPa 0,0 l/m 14,7 km/h (3 Bft) W 271 0 min 0,102 mm 0,0 UV-I 5 W/m 0,5 C 3,8 C 25,7 km/h (4 Bft) 97,56 %
02.03.2017 18:03 8,7 C 56 % 1015,1 hPa 0,0 l/m 15,8 km/h (3 Bft) SW 219 0 min 0,000 mm 0,0 UV-I 0 W/m 0,4 C 3,2 C 22,5 km/h (4 Bft) 100,00 %
02.03.2017 18:04 8,7 C 56 % 1015,1 hPa 0,0 l/m 17,0 km/h (3 Bft) W-SW 256 0 min 0,000 mm 0,0 UV-I 0 W/m 0,4 C 2,7 C 22,5 km/h (4 Bft) 91,67 %
02.03.2017 18:06 8,6 C 57 % 1015,1 hPa 0,0 l/m 13,2 km/h (3 Bft) W-SW 247 0 min 0,000 mm 0,0 UV-I 0 W/m 0,6 C 4,3 C 20,9 km/h (4 Bft) 93,62 %
02.03.2017 18:08 8,5 C 57 % 1015,1 hPa 0,0 l/m 12,6 km/h (3 Bft) W-SW 255 0 min 0,000 mm 0,0 UV-I 0 W/m 0,5 C 4,5 C 17,7 km/h (3 Bft) 96,00 %
02.03.2017 18:10 8,4 C 57 % 1015,2 hPa 0,0 l/m 12,0 km/h (2 Bft) SW 228 0 min 0,000 mm 0,0 UV-I 0 W/m 0,4 C 4,7 C 19,3 km/h (3 Bft) 93,18 %
02.03.2017 18:12 8,3 C 57 % 1015,2 hPa 0,0 l/m 11,5 km/h (2 Bft) W-SW 255 0 min 0,000 mm 0,0 UV-I 0 W/m 0,3 C 4,8 C 17,7 km/h (3 Bft) 98,00 %
02.03.2017 18:14 8,3 C 58 % 1015,2 hPa 0,0 l/m 11,2 km/h (2 Bft) W-SW 246 0 min 0,000 mm 0,0 UV-I 0 W/m 0,5 C 5,0 C 17,7 km/h (3 Bft) 93,62 %
02.03.2017 18:16 8,3 C 58 % 1015,2 hPa 0,0 l/m 17,6 km/h (3 Bft) SW 233 0 min 0,000 mm 0,0 UV-I 0 W/m 0,5 C 2,0 C 24,1 km/h (4 Bft) 97,87 %
02.03.2017 18:18 8,2 C 58 % 1015,3 hPa 0,0 l/m 13,2 km/h (3 Bft) S-SW 213 0 min 0,000 mm 0,0 UV-I 0 W/m 0,4 C 3,8 C 20,9 km/h (4 Bft) 97,87 %
02.03.2017 18:20 8,2 C 58 % 1015,4 hPa 0,0 l/m 13,1 km/h (3 Bft) SW 221 0 min 0,000 mm 0,0 UV-I 0 W/m 0,4 C 3,9 C 20,9 km/h (4 Bft) 100,00 %
02.03.2017 18:22 8,2 C 58 % 1015,4 hPa 0,0 l/m 14,4 km/h (3 Bft) W-SW 251 0 min 0,000 mm 0,0 UV-I 0 W/m 0,4 C 3,2 C 19,3 km/h (3 Bft) 97,56 %
02.03.2017 18:24 8,2 C 57 % 1015,4 hPa 0,0 l/m 16,2 km/h (3 Bft) SW 235 0 min 0,000 mm 0,0 UV-I 0 W/m 0,2 C 2,4 C 22,5 km/h (4 Bft) 92,86 %
02.03.2017 18:26 8,2 C 57 % 1015,4 hPa 0,0 l/m 18,5 km/h (3 Bft) W-SW 242 0 min 0,000 mm 0,0 UV-I 0 W/m 0,2 C 1,5 C 30,6 km/h (5 Bft) 97,56 %
02.03.2017 18:28 8,3 C 57 % 1015,5 hPa 0,0 l/m 20,7 km/h (4 Bft) W 266 0 min 0,000 mm 0,0 UV-I 0 W/m 0,3 C 0,9 C 30,6 km/h (5 Bft) 98,11 %
02.03.2017 18:30 8,3 C 56 % 1015,5 hPa 0,0 l/m 19,9 km/h (4 Bft) W-SW 244 0 min 0,000 mm 0,0 UV-I 0 W/m 0,0 C 1,1 C 37,0 km/h (5 Bft) 92,68 %
02.03.2017 18:32 8,3 C 56 % 1015,5 hPa 0,0 l/m 18,1 km/h (3 Bft) W-SW 240 0 min 0,000 mm 0,0 UV-I 0 W/m 0,0 C 1,8 C 27,4 km/h (4 Bft) 96,23 %
02.03.2017 18:34 8,3 C 56 % 1015,5 hPa 0,0 l/m 18,3 km/h (3 Bft) W-SW 252 0 min 0,000 mm 0,0 UV-I 0 W/m 0,0 C 1,7 C 24,1 km/h (4 Bft) 95,74 %
02.03.2017 18:36 8,3 C 56 % 1015,6 hPa 0,0 l/m 19,5 km/h (3 Bft) W 271 0 min 0,000 mm 0,0 UV-I 0 W/m 0,0 C 1,3 C 27,4 km/h (4 Bft) 97,44 %
02.03.2017 18:38 8,3 C 56 % 1015,7 hPa 0,0 l/m 18,7 km/h (3 Bft) SW 232 0 min 0,000 mm 0,0 UV-I 0 W/m 0,0 C 1,6 C 27,4 km/h (4 Bft) 95,74 %
02.03.2017 18:40 8,3 C 55 % 1015,7 hPa 0,0 l/m 18,7 km/h (3 Bft) NW 311 0 min 0,000 mm 0,0 UV-I 0 W/m -0,2 C 1,6 C 27,4 km/h (4 Bft) 98,00 %
02.03.2017 18:42 8,4 C 55 % 1015,8 hPa 0,0 l/m 20,6 km/h (4 Bft) W-SW 257 0 min 0,000 mm 0,0 UV-I 0 W/m -0,1 C 1,0 C 32,2 km/h (5 Bft) 97,56 %
02.03.2017 18:44 8,4 C 55 % 1015,7 hPa 0,0 l/m 19,1 km/h (3 Bft) SW 236 0 min 0,000 mm 0,0 UV-I 0 W/m -0,1 C 1,5 C 27,4 km/h (4 Bft) 96,23 %
02.03.2017 18:46 8,4 C 55 % 1015,8 hPa 0,0 l/m 18,9 km/h (3 Bft) SW 234 0 min 0,000 mm 0,0 UV-I 0 W/m -0,1 C 1,6 C 29,0 km/h (5 Bft) 95,12 %
02.03.2017 18:48 8,4 C 55 % 1015,9 hPa 0,0 l/m 17,0 km/h (3 Bft) SW 225 0 min 0,000 mm 0,0 UV-I 0 W/m -0,1 C 2,3 C 22,5 km/h (4 Bft) 98,00 %
02.03.2017 18:50 8,3 C 55 % 1015,9 hPa 0,0 l/m 17,2 km/h (3 Bft) W-SW 238 0 min 0,000 mm 0,0 UV-I 0 W/m -0,2 C 2,1 C 25,7 km/h (4 Bft) 95,45 %
02.03.2017 18:52 8,3 C 55 % 1015,9 hPa 0,0 l/m 20,7 km/h (4 Bft) W 274 0 min 0,000 mm 0,0 UV-I 0 W/m -0,2 C 0,9 C 33,8 km/h (5 Bft) 94,34 %
02.03.2017 18:54 8,3 C 55 % 1015,9 hPa 0,0 l/m 18,0 km/h (3 Bft) W-SW 254 0 min 0,000 mm 0,0 UV-I 0 W/m -0,2 C 1,8 C 24,1 km/h (4 Bft) 94,00 %
02.03.2017 18:56 8,3 C 55 % 1016,0 hPa 0,0 l/m 15,4 km/h (3 Bft) W 261 0 min 0,000 mm 0,0 UV-I 0 W/m -0,2 C 2,9 C 20,9 km/h (4 Bft) 97,14 %
02.03.2017 18:58 8,3 C 56 % 1016,0 hPa 0,0 l/m 16,6 km/h (3 Bft) W-SW 252 0 min 0,000 mm 0,0 UV-I 0 W/m 0,0 C 2,4 C 25,7 km/h (4 Bft) 96,43 %
02.03.2017 19:00 8,3 C 55 % 1016,0 hPa 0,0 l/m 14,3 km/h (3 Bft) SW 225 0 min 0,076 mm 0,0 UV-I 0 W/m -0,2 C 3,4 C 20,9 km/h (4 Bft) 97,87 %
02.03.2017 19:02 8,3 C 56 % 1016,1 hPa 0,0 l/m 14,8 km/h (3 Bft) W-SW 249 0 min 0,000 mm 0,0 UV-I 0 W/m 0,0 C 3,2 C 20,9 km/h (4 Bft) 100,00 %
02.03.2017 19:04 8,3 C 56 % 1016,2 hPa 0,0 l/m 12,8 km/h (3 Bft) SW 222 0 min 0,000 mm 0,0 UV-I 0 W/m 0,0 C 4,1 C 17,7 km/h (3 Bft) 98,11 %
02.03.2017 19:06 8,2 C 56 % 1016,2 hPa 0,0 l/m 13,8 km/h (3 Bft) W-SW 239 0 min 0,000 mm 0,0 UV-I 0 W/m -0,0 C 3,5 C 24,1 km/h (4 Bft) 95,45 %
02.03.2017 19:08 8,2 C 57 % 1016,3 hPa 0,0 l/m 14,5 km/h (3 Bft) SW 231 0 min 0,000 mm 0,0 UV-I 0 W/m 0,2 C 3,2 C 22,5 km/h (4 Bft) 95,45 %
02.03.2017 19:10 8,2 C 57 % 1016,3 hPa 0,0 l/m 14,6 km/h (3 Bft) W-SW 238 0 min 0,000 mm 0,0 UV-I 0 W/m 0,2 C 3,1 C 20,9 km/h (4 Bft) 98,11 %
02.03.2017 19:12 8,1 C 58 % 1016,4 hPa 0,0 l/m 14,7 km/h (3 Bft) W-SW 254 0 min 0,000 mm 0,0 UV-I 0 W/m 0,3 C 3,0 C 20,9 km/h (4 Bft) 95,74 %
02.03.2017 19:14 8,1 C 58 % 1016,5 hPa 0,0 l/m 16,5 km/h (3 Bft) SW 236 0 min 0,000 mm 0,0 UV-I 0 W/m 0,3 C 2,2 C 20,9 km/h (4 Bft) 100,00 %
02.03.2017 19:16 8,1 C 56 % 1016,5 hPa 0,0 l/m 18,1 km/h (3 Bft) W-SW 240 0 min 0,000 mm 0,0 UV-I 0 W/m -0,1 C 1,5 C 30,6 km/h (5 Bft) 100,00 %
02.03.2017 19:18 8,2 C 56 % 1016,4 hPa 0,0 l/m 20,4 km/h (4 Bft) W 263 0 min 0,000 mm 0,0 UV-I 0 W/m -0,0 C 0,8 C 30,6 km/h (5 Bft) 100,00 %
02.03.2017 19:20 8,2 C 55 % 1016,4 hPa 0,0 l/m 22,2 km/h (4 Bft) W-SW 239 0 min 0,000 mm 0,0 UV-I 0 W/m -0,3 C 0,2 C 37,0 km/h (5 Bft) 96,23 %
02.03.2017 19:22 8,3 C 56 % 1016,5 hPa 0,0 l/m 22,4 km/h (4 Bft) SW 226 0 min 0,000 mm 0,0 UV-I 0 W/m 0,0 C 0,3 C 38,6 km/h (5 Bft) 97,37 %
02.03.2017 19:24 8,2 C 58 % 1016,5 hPa 0,0 l/m 22,4 km/h (4 Bft) W-SW 242 0 min 0,000 mm 0,0 UV-I 0 W/m 0,4 C 0,2 C 35,4 km/h (5 Bft) 100,00 %
02.03.2017 19:26 8,2 C 57 % 1016,5 hPa 0,0 l/m 27,0 km/h (4 Bft) W-SW 237 0 min 0,000 mm 0,0 UV-I 0 W/m 0,2 C -1,1 C 35,4 km/h (5 Bft) 100,00 %
02.03.2017 19:28 8,2 C 58 % 1016,6 hPa 0,0 l/m 22,2 km/h (4 Bft) W-SW 245 0 min 0,000 mm 0,0 UV-I 0 W/m 0,4 C 0,2 C 30,6 km/h (5 Bft) 98,00 %
02.03.2017 19:30 8,1 C 57 % 1016,6 hPa 0,0 l/m 23,0 km/h (4 Bft) W-SW 252 0 min 0,000 mm 0,0 UV-I 0 W/m 0,1 C -0,2 C 30,6 km/h (5 Bft) 100,00 %
02.03.2017 19:32 8,1 C 57 % 1016,5 hPa 0,0 l/m 23,9 km/h (4 Bft) W 266 0 min 0,000 mm 0,0 UV-I 0 W/m 0,1 C -0,4 C 37,0 km/h (5 Bft) 97,87 %
02.03.2017 19:34 8,1 C 55 % 1016,5 hPa 0,0 l/m 23,8 km/h (4 Bft) W 267 0 min 0,000 mm 0,0 UV-I 0 W/m -0,4 C -0,4 C 37,0 km/h (5 Bft) 100,00 %
02.03.2017 19:36 8,1 C 54 % 1016,5 hPa 0,0 l/m 22,0 km/h (4 Bft) SW 229 0 min 0,000 mm 0,0 UV-I 0 W/m -0,6 C 0,2 C 30,6 km/h (5 Bft) 100,00 %
02.03.2017 19:38 8,2 C 53 % 1016,5 hPa 0,0 l/m 25,4 km/h (4 Bft) W 259 0 min 0,000 mm 0,0 UV-I 0 W/m -0,8 C -0,7 C 33,8 km/h (5 Bft) 97,56 %
02.03.2017 19:40 8,2 C 53 % 1016,6 hPa 0,0 l/m 20,1 km/h (4 Bft) W-SW 249 0 min 0,000 mm 0,0 UV-I 0 W/m -0,8 C 0,9 C 27,4 km/h (4 Bft) 100,00 %
02.03.2017 19:42 8,3 C 52 % 1016,5 hPa 0,0 l/m 20,4 km/h (4 Bft) W-SW 254 0 min 0,000 mm 0,0 UV-I 0 W/m -1,0 C 1,0 C 25,7 km/h (4 Bft) 100,00 %
02.03.2017 19:44 8,3 C 52 % 1016,6 hPa 0,0 l/m 19,8 km/h (3 Bft) W-SW 254 0 min 0,000 mm 0,0 UV-I 0 W/m -1,0 C 1,2 C 35,4 km/h (5 Bft) 98,21 %
02.03.2017 19:46 8,3 C 52 % 1016,7 hPa 0,0 l/m 26,9 km/h (4 Bft) W-SW 254 0 min 0,000 mm 0,0 UV-I 0 W/m -1,0 C -1,0 C 46,7 km/h (6 Bft) 92,11 %
02.03.2017 19:48 8,3 C 51 % 1016,5 hPa 0,0 l/m 31,6 km/h (5 Bft) W 279 0 min 0,000 mm 0,0 UV-I 0 W/m -1,2 C -2,1 C 46,7 km/h (6 Bft) 97,87 %
02.03.2017 19:50 8,4 C 49 % 1016,6 hPa 0,0 l/m 27,6 km/h (4 Bft) W-SW 255 0 min 0,000 mm 0,0 UV-I 0 W/m -1,7 C -1,0 C 37,0 km/h (5 Bft) 98,00 %
02.03.2017 19:52 8,5 C 48 % 1016,6 hPa 0,0 l/m 19,0 km/h (3 Bft) W-SW 250 0 min 0,000 mm 0,0 UV-I 0 W/m -1,9 C 1,7 C 29,0 km/h (5 Bft) 94,00 %
02.03.2017 19:54 8,6 C 49 % 1016,7 hPa 0,0 l/m 17,2 km/h (3 Bft) W-SW 257 0 min 0,000 mm 0,0 UV-I 0 W/m -1,5 C 2,5 C 25,7 km/h (4 Bft) 100,00 %
02.03.2017 19:56 8,6 C 50 % 1016,7 hPa 0,0 l/m 17,7 km/h (3 Bft) SW 235 0 min 0,000 mm 0,0 UV-I 0 W/m -1,2 C 2,3 C 25,7 km/h (4 Bft) 98,28 %
02.03.2017 19:58 8,4 C 50 % 1016,8 hPa 0,0 l/m 13,3 km/h (3 Bft) W 268 0 min 0,000 mm 0,0 UV-I 0 W/m -1,4 C 4,0 C 20,9 km/h (4 Bft) 93,33 %
02.03.2017 20:00 8,4 C 51 % 1016,8 hPa 0,0 l/m 18,5 km/h (3 Bft) W-SW 258 0 min 0,102 mm 0,0 UV-I 0 W/m -1,1 C 1,8 C 25,7 km/h (4 Bft) 100,00 %
02.03.2017 20:02 8,3 C 53 % 1016,9 hPa 0,0 l/m 17,5 km/h (3 Bft) W-SW 246 0 min 0,000 mm 0,0 UV-I 0 W/m -0,7 C 2,0 C 25,7 km/h (4 Bft) 100,00 %
02.03.2017 20:04 8,3 C 53 % 1016,9 hPa 0,0 l/m 15,1 km/h (3 Bft) W-SW 248 0 min 0,000 mm 0,0 UV-I 0 W/m -0,7 C 3,0 C 19,3 km/h (3 Bft) 100,00 %
02.03.2017 20:06 8,2 C 54 % 1016,9 hPa 0,0 l/m 21,5 km/h (4 Bft) W 279 0 min 0,000 mm 0,0 UV-I 0 W/m -0,5 C 0,5 C 32,2 km/h (5 Bft) 98,11 %
02.03.2017 20:08 8,2 C 55 % 1016,9 hPa 0,0 l/m 15,2 km/h (3 Bft) W-SW 247 0 min 0,000 mm 0,0 UV-I 0 W/m -0,3 C 2,9 C 20,9 km/h (4 Bft) 97,87 %
02.03.2017 20:10 8,1 C 55 % 1016,9 hPa 0,0 l/m 18,8 km/h (3 Bft) W-SW 252 0 min 0,000 mm 0,0 UV-I 0 W/m -0,4 C 1,3 C 25,7 km/h (4 Bft) 100,00 %
02.03.2017 20:12 8,0 C 55 % 1016,9 hPa 0,0 l/m 14,0 km/h (3 Bft) W 266 0 min 0,000 mm 0,0 UV-I 0 W/m -0,5 C 3,2 C 20,9 km/h (4 Bft) 100,00 %
02.03.2017 20:14 7,9 C 56 % 1017,0 hPa 0,0 l/m 13,8 km/h (3 Bft) W 265 0 min 0,000 mm 0,0 UV-I 0 W/m -0,3 C 3,2 C 27,4 km/h (4 Bft) 100,00 %
02.03.2017 20:16 7,8 C 56 % 1017,0 hPa 0,0 l/m 15,6 km/h (3 Bft) W-SW 250 0 min 0,000 mm 0,0 UV-I 0 W/m -0,4 C 2,2 C 25,7 km/h (4 Bft) 100,00 %
02.03.2017 20:18 7,8 C 56 % 1017,0 hPa 0,0 l/m 16,6 km/h (3 Bft) W-SW 257 0 min 0,000 mm 0,0 UV-I 0 W/m -0,4 C 1,8 C 24,1 km/h (4 Bft) 100,00 %
02.03.2017 20:20 7,8 C 57 % 1017,1 hPa 0,0 l/m 14,3 km/h (3 Bft) W 260 0 min 0,000 mm 0,0 UV-I 0 W/m -0,2 C 2,8 C 19,3 km/h (3 Bft) 100,00 %
02.03.2017 20:22 7,7 C 57 % 1017,1 hPa 0,0 l/m 14,1 km/h (3 Bft) W-SW 255 0 min 0,000 mm 0,0 UV-I 0 W/m -0,3 C 2,8 C 20,9 km/h (4 Bft) 100,00 %
02.03.2017 20:24 7,7 C 57 % 1017,1 hPa 0,0 l/m 13,4 km/h (3 Bft) W-SW 249 0 min 0,000 mm 0,0 UV-I 0 W/m -0,3 C 3,1 C 19,3 km/h (3 Bft) 96,00 %
02.03.2017 20:26 7,7 C 58 % 1017,1 hPa 0,0 l/m 15,0 km/h (3 Bft) W-SW 248 0 min 0,000 mm 0,0 UV-I 0 W/m -0,0 C 2,3 C 20,9 km/h (4 Bft) 98,00 %
02.03.2017 20:28 7,7 C 58 % 1017,2 hPa 0,0 l/m 14,9 km/h (3 Bft) W-SW 250 0 min 0,000 mm 0,0 UV-I 0 W/m -0,0 C 2,4 C 20,9 km/h (4 Bft) 97,56 %
02.03.2017 20:30 7,7 C 58 % 1017,2 hPa 0,0 l/m 14,2 km/h (3 Bft) W 261 0 min 0,000 mm 0,0 UV-I 0 W/m -0,0 C 2,7 C 20,9 km/h (4 Bft) 96,00 %
02.03.2017 20:32 7,7 C 58 % 1017,3 hPa 0,0 l/m 14,1 km/h (3 Bft) SW 228 0 min 0,000 mm 0,0 UV-I 0 W/m -0,0 C 2,8 C 22,5 km/h (4 Bft) 97,44 %
02.03.2017 20:34 7,7 C 58 % 1017,3 hPa 0,0 l/m 15,1 km/h (3 Bft) W-SW 255 0 min 0,000 mm 0,0 UV-I 0 W/m -0,0 C 2,3 C 20,9 km/h (4 Bft) 97,56 %
02.03.2017 20:36 7,7 C 58 % 1017,3 hPa 0,0 l/m 12,0 km/h (2 Bft) W-SW 255 0 min 0,000 mm 0,0 UV-I 0 W/m -0,0 C 3,9 C 17,7 km/h (3 Bft) 93,22 %
02.03.2017 20:38 7,6 C 59 % 1017,3 hPa 0,0 l/m 15,2 km/h (3 Bft) W-SW 241 0 min 0,000 mm 0,0 UV-I 0 W/m 0,1 C 2,1 C 20,9 km/h (4 Bft) 92,45 %
02.03.2017 20:40 7,6 C 59 % 1017,4 hPa 0,0 l/m 13,0 km/h (3 Bft) W 275 0 min 0,000 mm 0,0 UV-I 0 W/m 0,1 C 3,2 C 20,9 km/h (4 Bft) 95,12 %
02.03.2017 20:42 7,6 C 59 % 1017,4 hPa 0,0 l/m 10,9 km/h (2 Bft) W-SW 249 0 min 0,000 mm 0,0 UV-I 0 W/m 0,1 C 4,4 C 14,5 km/h (3 Bft) 94,00 %
02.03.2017 20:44 7,5 C 59 % 1017,4 hPa 0,0 l/m 12,3 km/h (3 Bft) W-SW 240 0 min 0,000 mm 0,0 UV-I 0 W/m 0,0 C 3,5 C 16,1 km/h (3 Bft) 94,00 %
02.03.2017 20:46 7,4 C 59 % 1017,4 hPa 0,0 l/m 11,8 km/h (2 Bft) W-SW 255 0 min 0,000 mm 0,0 UV-I 0 W/m -0,1 C 3,6 C 17,7 km/h (3 Bft) 97,37 %
02.03.2017 20:48 7,4 C 59 % 1017,4 hPa 0,0 l/m 12,7 km/h (3 Bft) W-SW 245 0 min 0,000 mm 0,0 UV-I 0 W/m -0,1 C 3,1 C 14,5 km/h (3 Bft) 96,23 %
02.03.2017 20:50 7,3 C 60 % 1017,4 hPa 0,0 l/m 11,7 km/h (2 Bft) W-SW 252 0 min 0,000 mm 0,0 UV-I 0 W/m 0,1 C 3,6 C 17,7 km/h (3 Bft) 96,00 %
02.03.2017 20:52 7,3 C 60 % 1017,4 hPa 0,0 l/m 10,4 km/h (2 Bft) W-SW 255 0 min 0,000 mm 0,0 UV-I 0 W/m 0,1 C 4,4 C 16,1 km/h (3 Bft) 97,37 %
02.03.2017 20:54 7,2 C 60 % 1017,4 hPa 0,0 l/m 10,5 km/h (2 Bft) SW 236 0 min 0,000 mm 0,0 UV-I 0 W/m -0,0 C 4,2 C 16,1 km/h (3 Bft) 96,00 %
02.03.2017 20:56 7,1 C 61 % 1017,4 hPa 0,0 l/m 10,7 km/h (2 Bft) SW 226 0 min 0,000 mm 0,0 UV-I 0 W/m 0,1 C 3,9 C 16,1 km/h (3 Bft) 97,56 %
02.03.2017 20:58 7,1 C 61 % 1017,4 hPa 0,0 l/m 12,5 km/h (3 Bft) W-SW 257 0 min 0,000 mm 0,0 UV-I 0 W/m 0,1 C 2,9 C 16,1 km/h (3 Bft) 98,00 %
02.03.2017 21:00 7,1 C 60 % 1017,4 hPa 0,0 l/m 11,3 km/h (2 Bft) W-SW 251 0 min 0,050 mm 0,0 UV-I 0 W/m -0,1 C 3,6 C 16,1 km/h (3 Bft) 92,45 %
02.03.2017 21:02 7,0 C 61 % 1017,5 hPa 0,0 l/m 11,2 km/h (2 Bft) SW 233 0 min 0,000 mm 0,0 UV-I 0 W/m 0,0 C 3,5 C 14,5 km/h (3 Bft) 100,00 %
02.03.2017 21:04 7,0 C 61 % 1017,5 hPa 0,0 l/m 11,7 km/h (2 Bft) W-SW 257 0 min 0,000 mm 0,0 UV-I 0 W/m 0,0 C 3,2 C 16,1 km/h (3 Bft) 94,00 %
02.03.2017 21:06 7,0 C 61 % 1017,6 hPa 0,0 l/m 13,6 km/h (3 Bft) W-SW 248 0 min 0,000 mm 0,0 UV-I 0 W/m 0,0 C 2,2 C 19,3 km/h (3 Bft) 100,00 %
02.03.2017 21:08 6,9 C 61 % 1017,6 hPa 0,0 l/m 12,6 km/h (3 Bft) W-SW 250 0 min 0,000 mm 0,0 UV-I 0 W/m -0,1 C 2,6 C 16,1 km/h (3 Bft) 95,12 %
02.03.2017 21:10 6,9 C 61 % 1017,6 hPa 0,0 l/m 12,7 km/h (3 Bft) W 261 0 min 0,000 mm 0,0 UV-I 0 W/m -0,1 C 2,6 C 17,7 km/h (3 Bft) 97,62 %
02.03.2017 21:12 6,9 C 61 % 1017,6 hPa 0,0 l/m 11,5 km/h (2 Bft) W 262 0 min 0,000 mm 0,0 UV-I 0 W/m -0,1 C 3,2 C 17,7 km/h (3 Bft) 98,11 %
02.03.2017 21:14 6,9 C 61 % 1017,7 hPa 0,0 l/m 10,3 km/h (2 Bft) W-SW 238 0 min 0,000 mm 0,0 UV-I 0 W/m -0,1 C 4,0 C 14,5 km/h (3 Bft) 95,74 %
02.03.2017 21:16 6,8 C 61 % 1017,7 hPa 0,0 l/m 10,9 km/h (2 Bft) W-SW 238 0 min 0,000 mm 0,0 UV-I 0 W/m -0,2 C 3,5 C 14,5 km/h (3 Bft) 100,00 %
02.03.2017 21:18 6,8 C 61 % 1017,8 hPa 0,0 l/m 8,4 km/h (2 Bft) W 276 0 min 0,000 mm 0,0 UV-I 0 W/m -0,2 C 5,2 C 14,5 km/h (3 Bft) 100,00 %
02.03.2017 21:20 6,8 C 61 % 1017,8 hPa 0,0 l/m 8,0 km/h (2 Bft) W-SW 243 0 min 0,000 mm 0,0 UV-I 0 W/m -0,2 C 5,5 C 12,9 km/h (3 Bft) 95,12 %
02.03.2017 21:22 6,7 C 62 % 1017,8 hPa 0,0 l/m 9,1 km/h (2 Bft) SW 219 0 min 0,000 mm 0,0 UV-I 0 W/m -0,1 C 4,6 C 12,9 km/h (3 Bft) 100,00 %
02.03.2017 21:24 6,7 C 62 % 1017,9 hPa 0,0 l/m 8,5 km/h (2 Bft) W-SW 240 0 min 0,000 mm 0,0 UV-I 0 W/m -0,1 C 5,0 C 12,9 km/h (3 Bft) 98,00 %
02.03.2017 21:26 6,6 C 63 % 1017,9 hPa 0,0 l/m 7,3 km/h (2 Bft) W-SW 250 0 min 0,000 mm 0,0 UV-I 0 W/m 0,1 C 5,8 C 12,9 km/h (3 Bft) 98,11 %
02.03.2017 21:28 6,5 C 63 % 1017,8 hPa 0,0 l/m 8,0 km/h (2 Bft) W-SW 240 0 min 0,000 mm 0,0 UV-I 0 W/m -0,0 C 5,2 C 12,9 km/h (3 Bft) 100,00 %
02.03.2017 21:30 6,4 C 64 % 1017,8 hPa 0,0 l/m 8,0 km/h (2 Bft) S-SW 198 0 min 0,000 mm 0,0 UV-I 0 W/m 0,1 C 5,1 C 12,9 km/h (3 Bft) 98,00 %
02.03.2017 21:32 6,4 C 64 % 1017,9 hPa 0,0 l/m 8,5 km/h (2 Bft) SW 234 0 min 0,000 mm 0,0 UV-I 0 W/m 0,1 C 4,7 C 16,1 km/h (3 Bft) 100,00 %
02.03.2017 21:34 6,4 C 64 % 1017,9 hPa 0,0 l/m 9,0 km/h (2 Bft) S-SW 209 0 min 0,000 mm 0,0 UV-I 0 W/m 0,1 C 4,3 C 11,3 km/h (2 Bft) 100,00 %
02.03.2017 21:36 6,3 C 65 % 1017,9 hPa 0,0 l/m 9,5 km/h (2 Bft) W-SW 244 0 min 0,000 mm 0,0 UV-I 0 W/m 0,2 C 3,9 C 14,5 km/h (3 Bft) 98,11 %
02.03.2017 21:38 6,3 C 65 % 1018,0 hPa 0,0 l/m 9,0 km/h (2 Bft) SW 229 0 min 0,000 mm 0,0 UV-I 0 W/m 0,2 C 4,2 C 11,3 km/h (2 Bft) 95,74 %
02.03.2017 21:40 6,2 C 66 % 1018,0 hPa 0,0 l/m 9,5 km/h (2 Bft) SW 234 0 min 0,000 mm 0,0 UV-I 0 W/m 0,3 C 3,7 C 12,9 km/h (3 Bft) 100,00 %
02.03.2017 21:42 6,1 C 66 % 1018,0 hPa 0,0 l/m 10,6 km/h (2 Bft) W-SW 238 0 min 0,000 mm 0,0 UV-I 0 W/m 0,2 C 2,9 C 14,5 km/h (3 Bft) 98,04 %
02.03.2017 21:44 6,0 C 67 % 1018,1 hPa 0,0 l/m 9,4 km/h (2 Bft) SW 232 0 min 0,000 mm 0,0 UV-I 0 W/m 0,3 C 3,6 C 12,9 km/h (3 Bft) 97,87 %
02.03.2017 21:46 5,9 C 67 % 1018,1 hPa 0,0 l/m 10,3 km/h (2 Bft) SW 229 0 min 0,000 mm 0,0 UV-I 0 W/m 0,3 C 2,9 C 16,1 km/h (3 Bft) 100,00 %
02.03.2017 21:48 5,9 C 68 % 1018,1 hPa 0,0 l/m 9,0 km/h (2 Bft) SW 233 0 min 0,000 mm 0,0 UV-I 0 W/m 0,5 C 3,8 C 11,3 km/h (2 Bft) 98,00 %
02.03.2017 21:50 5,8 C 68 % 1018,1 hPa 0,0 l/m 9,4 km/h (2 Bft) W-SW 238 0 min 0,000 mm 0,0 UV-I 0 W/m 0,4 C 3,4 C 14,5 km/h (3 Bft) 97,62 %
02.03.2017 21:52 5,8 C 68 % 1018,2 hPa 0,0 l/m 10,5 km/h (2 Bft) SW 233 0 min 0,000 mm 0,0 UV-I 0 W/m 0,4 C 2,6 C 14,5 km/h (3 Bft) 94,55 %
02.03.2017 21:54 5,8 C 68 % 1018,2 hPa 0,0 l/m 9,0 km/h (2 Bft) SW 227 0 min 0,000 mm 0,0 UV-I 0 W/m 0,4 C 3,7 C 12,9 km/h (3 Bft) 100,00 %
02.03.2017 21:56 5,8 C 69 % 1018,1 hPa 0,0 l/m 10,0 km/h (2 Bft) SW 229 0 min 0,000 mm 0,0 UV-I 0 W/m 0,6 C 3,0 C 14,5 km/h (3 Bft) 92,45 %
02.03.2017 21:58 5,8 C 68 % 1018,2 hPa 0,0 l/m 10,4 km/h (2 Bft) SW 233 0 min 0,000 mm 0,0 UV-I 0 W/m 0,4 C 2,7 C 14,5 km/h (3 Bft) 100,00 %
02.03.2017 22:00 5,8 C 68 % 1018,1 hPa 0,0 l/m 9,8 km/h (2 Bft) S-SW 213 0 min 0,026 mm 0,0 UV-I 0 W/m 0,4 C 3,1 C 14,5 km/h (3 Bft) 100,00 %
02.03.2017 22:02 5,8 C 68 % 1018,1 hPa 0,0 l/m 10,8 km/h (2 Bft) SW 226 0 min 0,000 mm 0,0 UV-I 0 W/m 0,4 C 2,4 C 16,1 km/h (3 Bft) 100,00 %
02.03.2017 22:04 5,8 C 68 % 1018,1 hPa 0,0 l/m 10,9 km/h (2 Bft) SW 229 0 min 0,000 mm 0,0 UV-I 0 W/m 0,4 C 2,4 C 14,5 km/h (3 Bft) 100,00 %
02.03.2017 22:06 5,8 C 68 % 1018,1 hPa 0,0 l/m 11,7 km/h (2 Bft) SW 231 0 min 0,000 mm 0,0 UV-I 0 W/m 0,4 C 1,9 C 16,1 km/h (3 Bft) 100,00 %
02.03.2017 22:08 5,8 C 68 % 1018,1 hPa 0,0 l/m 11,1 km/h (2 Bft) SW 221 0 min 0,000 mm 0,0 UV-I 0 W/m 0,4 C 2,2 C 14,5 km/h (3 Bft) 100,00 %
02.03.2017 22:10 5,8 C 69 % 1018,2 hPa 0,0 l/m 12,0 km/h (2 Bft) SW 226 0 min 0,000 mm 0,0 UV-I 0 W/m 0,6 C 1,7 C 17,7 km/h (3 Bft) 100,00 %
02.03.2017 22:12 5,7 C 69 % 1018,2 hPa 0,0 l/m 10,6 km/h (2 Bft) SW 225 0 min 0,000 mm 0,0 UV-I 0 W/m 0,5 C 2,4 C 14,5 km/h (3 Bft) 97,37 %
02.03.2017 22:14 5,7 C 69 % 1018,2 hPa 0,0 l/m 9,3 km/h (2 Bft) S-SW 206 0 min 0,000 mm 0,0 UV-I 0 W/m 0,5 C 3,3 C 12,9 km/h (3 Bft) 94,64 %
02.03.2017 22:16 5,6 C 69 % 1018,2 hPa 0,0 l/m 10,1 km/h (2 Bft) SW 236 0 min 0,000 mm 0,0 UV-I 0 W/m 0,4 C 2,7 C 12,9 km/h (3 Bft) 96,00 %
02.03.2017 22:18 5,6 C 70 % 1018,3 hPa 0,0 l/m 8,5 km/h (2 Bft) SW 232 0 min 0,000 mm 0,0 UV-I 0 W/m 0,6 C 3,8 C 11,3 km/h (2 Bft) 97,56 %
02.03.2017 22:20 5,4 C 70 % 1018,2 hPa 0,0 l/m 8,9 km/h (2 Bft) SW 225 0 min 0,000 mm 0,0 UV-I 0 W/m 0,4 C 3,3 C 12,9 km/h (3 Bft) 100,00 %
02.03.2017 22:22 5,4 C 70 % 1018,3 hPa 0,0 l/m 8,7 km/h (2 Bft) SW 234 0 min 0,000 mm 0,0 UV-I 0 W/m 0,4 C 3,5 C 12,9 km/h (3 Bft) 97,73 %
02.03.2017 22:24 5,4 C 70 % 1018,3 hPa 0,0 l/m 9,6 km/h (2 Bft) SW 221 0 min 0,000 mm 0,0 UV-I 0 W/m 0,4 C 2,8 C 12,9 km/h (3 Bft) 100,00 %
02.03.2017 22:26 5,3 C 70 % 1018,4 hPa 0,0 l/m 10,0 km/h (2 Bft) SW 217 0 min 0,000 mm 0,0 UV-I 0 W/m 0,3 C 2,4 C 14,5 km/h (3 Bft) 96,00 %
02.03.2017 22:28 5,3 C 70 % 1018,4 hPa 0,0 l/m 9,8 km/h (2 Bft) SW 236 0 min 0,000 mm 0,0 UV-I 0 W/m 0,3 C 2,5 C 14,5 km/h (3 Bft) 98,00 %
02.03.2017 22:30 5,3 C 70 % 1018,4 hPa 0,0 l/m 9,1 km/h (2 Bft) SW 236 0 min 0,000 mm 0,0 UV-I 0 W/m 0,3 C 3,1 C 12,9 km/h (3 Bft) 97,96 %
02.03.2017 22:32 5,3 C 70 % 1018,5 hPa 0,0 l/m 9,6 km/h (2 Bft) W-SW 237 0 min 0,000 mm 0,0 UV-I 0 W/m 0,3 C 2,7 C 14,5 km/h (3 Bft) 91,11 %
02.03.2017 22:34 5,3 C 70 % 1018,4 hPa 0,0 l/m 7,9 km/h (2 Bft) SW 236 0 min 0,000 mm 0,0 UV-I 0 W/m 0,3 C 4,0 C 11,3 km/h (2 Bft) 98,00 %
02.03.2017 22:36 5,2 C 70 % 1018,5 hPa 0,0 l/m 8,6 km/h (2 Bft) SW 230 0 min 0,000 mm 0,0 UV-I 0 W/m 0,2 C 3,3 C 11,3 km/h (2 Bft) 96,00 %
02.03.2017 22:38 5,3 C 70 % 1018,5 hPa 0,0 l/m 8,2 km/h (2 Bft) SW 236 0 min 0,000 mm 0,0 UV-I 0 W/m 0,3 C 3,8 C 12,9 km/h (3 Bft) 100,00 %
02.03.2017 22:40 5,3 C 69 % 1018,5 hPa 0,0 l/m 8,5 km/h (2 Bft) SW 231 0 min 0,000 mm 0,0 UV-I 0 W/m 0,1 C 3,5 C 11,3 km/h (2 Bft) 98,11 %
02.03.2017 22:42 5,3 C 69 % 1018,6 hPa 0,0 l/m 7,9 km/h (2 Bft) SW 236 0 min 0,000 mm 0,0 UV-I 0 W/m 0,1 C 4,0 C 12,9 km/h (3 Bft) 95,74 %
02.03.2017 22:44 5,4 C 68 % 1018,6 hPa 0,0 l/m 8,5 km/h (2 Bft) SW 219 0 min 0,000 mm 0,0 UV-I 0 W/m -0,0 C 3,6 C 12,9 km/h (3 Bft) 94,29 %
02.03.2017 22:46 5,4 C 68 % 1018,6 hPa 0,0 l/m 6,4 km/h (2 Bft) SW 218 0 min 0,000 mm 0,0 UV-I 0 W/m -0,0 C 5,4 C 8,0 km/h (2 Bft) 92,86 %
02.03.2017 22:48 5,4 C 68 % 1018,7 hPa 0,0 l/m 7,6 km/h (2 Bft) W-SW 240 0 min 0,000 mm 0,0 UV-I 0 W/m -0,0 C 4,4 C 11,3 km/h (2 Bft) 94,00 %
02.03.2017 22:50 5,4 C 68 % 1018,7 hPa 0,0 l/m 7,7 km/h (2 Bft) SW 230 0 min 0,000 mm 0,0 UV-I 0 W/m -0,0 C 4,3 C 12,9 km/h (3 Bft) 92,11 %
02.03.2017 22:52 5,4 C 68 % 1018,7 hPa 0,0 l/m 8,2 km/h (2 Bft) W-SW 243 0 min 0,000 mm 0,0 UV-I 0 W/m -0,0 C 3,9 C 11,3 km/h (2 Bft) 94,34 %
02.03.2017 22:54 5,4 C 67 % 1018,8 hPa 0,0 l/m 8,1 km/h (2 Bft) SW 235 0 min 0,000 mm 0,0 UV-I 0 W/m -0,2 C 3,9 C 11,3 km/h (2 Bft) 87,80 %
02.03.2017 22:56 5,4 C 67 % 1018,8 hPa 0,0 l/m 7,0 km/h (2 Bft) W-SW 244 0 min 0,000 mm 0,0 UV-I 0 W/m -0,2 C 4,9 C 12,9 km/h (3 Bft) 90,00 %
02.03.2017 22:58 5,4 C 67 % 1018,8 hPa 0,0 l/m 5,7 km/h (1 Bft) SW 223 0 min 0,000 mm 0,0 UV-I 0 W/m -0,2 C 5,4 C 9,7 km/h (2 Bft) 94,00 %
02.03.2017 23:00 5,4 C 67 % 1018,8 hPa 0,0 l/m 6,3 km/h (2 Bft) SW 228 0 min 0,025 mm 0,0 UV-I 0 W/m -0,2 C 5,4 C 9,7 km/h (2 Bft) 90,00 %
02.03.2017 23:02 5,4 C 67 % 1018,9 hPa 0,0 l/m 6,1 km/h (2 Bft) SW 214 0 min 0,000 mm 0,0 UV-I 0 W/m -0,2 C 5,4 C 11,3 km/h (2 Bft) 94,29 %
02.03.2017 23:04 5,4 C 67 % 1018,9 hPa 0,0 l/m 6,2 km/h (2 Bft) SW 218 0 min 0,000 mm 0,0 UV-I 0 W/m -0,2 C 5,4 C 9,7 km/h (2 Bft) 91,07 %
02.03.2017 23:06 5,4 C 67 % 1018,9 hPa 0,0 l/m 9,0 km/h (2 Bft) SW 219 0 min 0,000 mm 0,0 UV-I 0 W/m -0,2 C 3,2 C 12,9 km/h (3 Bft) 92,00 %
02.03.2017 23:08 5,4 C 67 % 1018,9 hPa 0,0 l/m 8,4 km/h (2 Bft) SW 218 0 min 0,000 mm 0,0 UV-I 0 W/m -0,2 C 3,7 C 12,9 km/h (3 Bft) 92,31 %
02.03.2017 23:10 5,4 C 67 % 1019,0 hPa 0,0 l/m 7,8 km/h (2 Bft) S-SW 205 0 min 0,000 mm 0,0 UV-I 0 W/m -0,2 C 4,2 C 11,3 km/h (2 Bft) 93,62 %
02.03.2017 23:12 5,4 C 66 % 1019,0 hPa 0,0 l/m 8,3 km/h (2 Bft) SW 223 0 min 0,000 mm 0,0 UV-I 0 W/m -0,4 C 3,8 C 11,3 km/h (2 Bft) 95,74 %
02.03.2017 23:14 5,3 C 66 % 1018,9 hPa 0,0 l/m 7,3 km/h (2 Bft) SW 220 0 min 0,000 mm 0,0 UV-I 0 W/m -0,5 C 4,5 C 11,3 km/h (2 Bft) 90,57 %
02.03.2017 23:16 5,3 C 67 % 1019,0 hPa 0,0 l/m 6,0 km/h (2 Bft) SW 231 0 min 0,000 mm 0,0 UV-I 0 W/m -0,3 C 5,3 C 8,0 km/h (2 Bft) 95,45 %
02.03.2017 23:18 5,3 C 67 % 1018,9 hPa 0,0 l/m 7,2 km/h (2 Bft) SW 223 0 min 0,000 mm 0,0 UV-I 0 W/m -0,3 C 4,6 C 11,3 km/h (2 Bft) 91,49 %
02.03.2017 23:20 5,3 C 67 % 1019,0 hPa 0,0 l/m 8,5 km/h (2 Bft) SW 232 0 min 0,000 mm 0,0 UV-I 0 W/m -0,3 C 3,5 C 14,5 km/h (3 Bft) 96,00 %
02.03.2017 23:22 5,3 C 66 % 1019,0 hPa 0,0 l/m 6,8 km/h (2 Bft) SW 234 0 min 0,000 mm 0,0 UV-I 0 W/m -0,5 C 5,0 C 11,3 km/h (2 Bft) 95,12 %
02.03.2017 23:24 5,2 C 67 % 1019,0 hPa 0,0 l/m 8,2 km/h (2 Bft) SW 217 0 min 0,000 mm 0,0 UV-I 0 W/m -0,4 C 3,6 C 11,3 km/h (2 Bft) 96,23 %
02.03.2017 23:26 5,2 C 66 % 1019,0 hPa 0,0 l/m 8,9 km/h (2 Bft) SW 220 0 min 0,000 mm 0,0 UV-I 0 W/m -0,6 C 3,1 C 12,9 km/h (3 Bft) 95,74 %
02.03.2017 23:28 5,2 C 66 % 1018,9 hPa 0,0 l/m 8,9 km/h (2 Bft) S-SW 198 0 min 0,000 mm 0,0 UV-I 0 W/m -0,6 C 3,1 C 11,3 km/h (2 Bft) 95,74 %
02.03.2017 23:30 5,2 C 66 % 1018,9 hPa 0,0 l/m 7,2 km/h (2 Bft) S-SW 212 0 min 0,000 mm 0,0 UV-I 0 W/m -0,6 C 4,5 C 11,3 km/h (2 Bft) 94,29 %
02.03.2017 23:33 5,1 C 66 % 1019,1 hPa 0,0 l/m 6,6 km/h (2 Bft) W-SW 238 0 min 0,000 mm 0,0 UV-I 0 W/m -0,7 C 4,9 C 11,3 km/h (2 Bft) 95,77 %
02.03.2017 23:34 5,1 C 67 % 1019,1 hPa 0,0 l/m 7,3 km/h (2 Bft) SW 218 0 min 0,000 mm 0,0 UV-I 0 W/m -0,5 C 4,3 C 9,7 km/h (2 Bft) 100,00 %
02.03.2017 23:36 5,0 C 67 % 1019,2 hPa 0,0 l/m 6,5 km/h (2 Bft) SW 223 0 min 0,000 mm 0,0 UV-I 0 W/m -0,6 C 4,9 C 11,3 km/h (2 Bft) 92,59 %
02.03.2017 23:38 5,0 C 67 % 1019,2 hPa 0,0 l/m 6,7 km/h (2 Bft) W-SW 238 0 min 0,000 mm 0,0 UV-I 0 W/m -0,6 C 4,8 C 11,3 km/h (2 Bft) 94,03 %
02.03.2017 23:40 4,9 C 67 % 1019,2 hPa 0,0 l/m 7,1 km/h (2 Bft) SW 226 0 min 0,000 mm 0,0 UV-I 0 W/m -0,7 C 4,3 C 9,7 km/h (2 Bft) 92,11 %
02.03.2017 23:42 4,9 C 67 % 1019,3 hPa 0,0 l/m 6,7 km/h (2 Bft) SW 227 0 min 0,000 mm 0,0 UV-I 0 W/m -0,7 C 4,7 C 9,7 km/h (2 Bft) 97,87 %
02.03.2017 23:44 4,9 C 68 % 1019,3 hPa 0,0 l/m 5,6 km/h (1 Bft) SW 221 0 min 0,000 mm 0,0 UV-I 0 W/m -0,5 C 4,9 C 11,3 km/h (2 Bft) 96,23 %
02.03.2017 23:46 4,8 C 67 % 1019,2 hPa 0,0 l/m 5,8 km/h (2 Bft) SW 223 0 min 0,000 mm 0,0 UV-I 0 W/m -0,8 C 4,8 C 8,0 km/h (2 Bft) 100,00 %
02.03.2017 23:48 4,8 C 67 % 1019,3 hPa 0,0 l/m 5,7 km/h (1 Bft) W-SW 238 0 min 0,000 mm 0,0 UV-I 0 W/m -0,8 C 4,8 C 8,0 km/h (2 Bft) 93,75 %
02.03.2017 23:50 4,7 C 67 % 1019,3 hPa 0,0 l/m 6,1 km/h (2 Bft) SW 221 0 min 0,000 mm 0,0 UV-I 0 W/m -0,9 C 4,7 C 8,0 km/h (2 Bft) 98,00 %
02.03.2017 23:52 4,7 C 67 % 1019,3 hPa 0,0 l/m 6,3 km/h (2 Bft) SW 224 0 min 0,000 mm 0,0 UV-I 0 W/m -0,9 C 4,7 C 8,0 km/h (2 Bft) 97,87 %
02.03.2017 23:54 4,7 C 67 % 1019,3 hPa 0,0 l/m 7,4 km/h (2 Bft) SW 217 0 min 0,000 mm 0,0 UV-I 0 W/m -0,9 C 3,8 C 11,3 km/h (2 Bft) 98,00 %
02.03.2017 23:56 4,7 C 67 % 1019,3 hPa 0,0 l/m 8,6 km/h (2 Bft) S-SW 211 0 min 0,000 mm 0,0 UV-I 0 W/m -0,9 C 2,8 C 11,3 km/h (2 Bft) 100,00 %
02.03.2017 23:58 4,7 C 67 % 1019,4 hPa 0,0 l/m 6,1 km/h (2 Bft) SW 221 0 min 0,000 mm 0,0 UV-I 0 W/m -0,9 C 4,7 C 9,7 km/h (2 Bft) 100,00 %
_ Min-Zeit 03:04 19:52 05:04 - 00:02 - - - - - - 19:52 19:48 00:02 00:02
Minimum _ 3,1 C 48 % 1008,0 hPa - 0,0 km/h (0 Bft) - - - - - - -1,9 C -2,1 C 0,0 km/h (0 Bft) 14,29 %
_ Max-Zeit 14:06 04:20 23:58 02:10 19:48 - - 14:03 15:00 11:42 13:44 10:02 08:18 12:54 00:08
Maximum _ 10,4 C 96 % 1019,4 hPa 0,2 l/m 31,6 km/h
W (5 Bft)
- - 3 min 0,280 mm 1,9 UV-I 789 W/m 7,6 C 6,8 C 53,1 km/h
W-SW (7 Bft)
100,00 %
Durchschnitt _ 6,8 C 76 % 1012,2 hPa #10,2 l/m 12,6 km/h (3 Bft) W-SW - #5:27 h #1,981 mm 1,1 UV-I 224 W/m 2,6 C 3,0 C 19,6 km/h (3 Bft) 96,61 %